GFSFLT1_700_spd_000.txt.gz
Wind_Speed
7 5 6 7 8 9 9 10 11 11 12 12 12 11 9 9 10 10 9 10 10 10 11 12 13 13 14 13 12 12 11 10 9
9 8 9 9 10 10 10 10 10 11 12 12 12 13 11 11 11 11 11 11 10 11 12 13 14 14 14 13 12 12 11 11 9
11 10 10 11 11 10 10 11 11 11 12 13 13 13 13 13 12 12 11 12 12 12 13 14 15 15 15 14 12 11 11 11 11
13 12 11 11 10 10 11 11 12 13 14 14 14 14 14 14 14 13 12 13 14 14 15 16 16 17 17 15 14 12 12 12 12
10 8 8 8 9 9 10 11 12 13 14 15 15 15 14 14 15 14 14 15 16 16 16 17 17 18 18 17 16 14 14 13 12
7 7 8 8 9 10 12 12 14 14 14 14 15 16 16 15 15 16 17 17 18 18 19 19 18 19 19 19 18 17 17 16 15
7 8 9 11 11 13 14 15 16 17 16 16 16 16 17 16 16 16 18 19 20 21 21 21 20 21 21 20 20 20 20 20 20
7 9 10 12 14 15 16 16 17 18 20 20 19 19 18 18 18 18 19 20 21 22 23 24 24 24 24 23 23 24 24 24 24
7 7 8 9 10 11 12 14 15 16 17 19 20 22 22 22 22 21 21 22 22 22 24 26 27 28 28 28 28 28 27 27 28
9 9 9 11 13 14 14 14 15 17 19 19 20 20 22 23 25 26 25 26 26 26 27 28 30 30 30 31 31 32 32 32 32
14 15 14 14 17 19 21 22 23 24 25 25 25 25 26 27 27 28 28 30 30 31 31 31 32 33 33 34 34 34 35 37 37
22 23 22 22 25 26 28 29 31 32 33 33 33 32 32 31 31 33 33 33 33 34 35 34 34 34 35 37 37 37 38 38 40
27 28 27 29 30 32 33 33 34 34 35 36 36 37 37 36 36 38 37 37 37 37 37 38 37 37 37 38 40 40 41 43 43
29 29 28 29 29 29 33 34 37 36 37 39 38 39 40 39 39 40 41 42 42 41 41 42 42 42 42 42 41 41 43 44 45
26 29 30 30 32 32 34 35 37 40 41 44 44 44 44 43 43 44 45 46 46 46 46 46 47 46 46 46 45 44 44 44 45
26 28 29 32 34 35 37 39 41 41 43 49 48 49 48 48 47 47 47 47 47 49 49 49 49 49 49 48 47 46 46 46 47
29 30 32 34 35 36 37 40 42 42 42 46 50 54 52 49 48 46 44 42 40 42 44 47 47 48 48 49 48 47 47 48 48
30 32 33 35 37 39 40 42 43 46 44 44 47 52 55 53 52 49 48 46 46 42 39 39 42 45 47 49 50 49 47 45 46
31 33 35 37 39 41 42 43 45 47 50 49 47 49 52 51 57 54 49 46 44 46 46 44 41 42 43 45 47 47 46 47 48
33 35 37 39 41 42 45 45 46 48 51 52 53 52 52 52 54 63 60 56 54 53 51 51 45 45 46 44 44 46 44 45 45

GFSFLT1_700_spd_003.txt.gz
Wind_Speed
6 6 8 8 8 8 8 9 10 11 10 9 9 8 10 11 13 12 12 12 13 13 13 13 11 10 10 11 11 11 11 11 10
7 8 10 9 10 10 9 10 11 12 12 11 10 10 10 12 13 14 14 14 15 15 16 15 13 13 13 12 12 12 11 10 10
8 10 11 11 11 11 10 11 12 13 13 13 13 12 12 12 14 16 17 17 17 17 17 16 16 16 16 15 14 13 12 10 10
7 9 9 10 11 10 11 12 14 14 14 15 16 14 14 15 16 18 19 19 19 18 18 18 19 19 19 18 17 16 15 13 11
5 8 8 8 10 11 12 13 14 14 15 17 17 17 17 17 18 19 20 22 22 21 21 21 21 22 21 21 20 19 18 17 14
6 8 9 10 12 13 14 16 16 16 17 18 18 18 20 20 20 21 23 24 24 24 24 24 24 23 24 24 23 23 22 21 19
6 8 9 11 13 14 15 16 17 17 18 19 19 19 20 21 21 22 24 25 26 26 26 27 27 27 26 27 27 26 25 25 24
6 6 8 9 11 12 14 15 16 16 17 18 19 21 23 23 24 23 24 26 27 27 28 29 30 30 30 30 30 30 29 29 28
7 9 10 11 13 14 16 16 16 17 18 19 20 21 23 25 27 27 28 29 29 29 30 31 32 32 33 33 33 33 33 33 32
13 15 16 16 18 21 21 22 23 23 23 23 24 26 28 29 30 31 30 32 33 34 34 34 35 36 36 35 35 35 36 37 37
21 23 23 23 25 26 27 28 29 30 31 31 32 32 35 36 37 37 36 35 35 37 38 39 39 39 39 39 39 38 39 39 40
26 27 28 29 30 31 32 33 34 35 37 37 37 38 39 40 41 42 41 40 39 39 41 43 43 43 43 42 42 42 42 42 42
25 26 28 29 30 31 33 34 35 36 38 40 40 41 41 41 41 42 42 42 42 43 43 45 46 47 47 47 46 45 44 45 45
23 24 25 27 28 30 32 34 37 37 38 41 41 42 42 42 42 42 44 46 47 47 47 48 49 51 51 51 51 50 49 48 48
23 24 25 26 27 28 31 32 34 36 38 41 41 41 42 42 40 40 42 45 47 50 52 53 53 53 53 53 53 52 51 52 52
23 25 26 27 29 31 34 36 37 37 41 45 46 47 45 44 45 45 45 44 43 43 41 43 46 47 48 50 52 52 52 52 53
25 27 29 30 32 33 36 39 41 41 42 48 50 54 51 49 50 47 46 45 45 45 42 40 41 41 43 45 46 49 51 52 54
26 28 31 34 37 38 40 42 44 47 44 44 49 55 58 58 54 53 52 50 47 46 47 47 44 42 38 43 41 41 45 48 51
29 31 34 37 40 42 44 45 46 48 50 49 46 47 53 59 68 61 58 56 55 53 52 52 53 54 54 50 46 43 41 43 44
33 36 40 42 44 45 46 46 46 48 50 52 54 55 54 53 57 68 64 61 59 57 56 56 55 55 59 57 55 53 52 50 45

GFSFLT1_700_spd_006.txt.gz
Wind_Speed
8 10 10 12 12 12 15 15 15 15 16 15 14 15 14 15 15 15 16 16 16 17 17 18 18 17 16 14 12 11 11 11 11
9 10 12 14 15 16 17 16 17 17 17 16 16 16 16 17 17 18 17 18 18 20 20 21 21 21 20 18 15 13 12 12 13
10 12 13 14 15 17 18 18 18 18 18 18 18 18 18 19 20 20 20 21 22 22 23 24 24 24 23 21 19 17 16 15 15
9 11 12 13 13 16 16 17 18 18 19 19 20 20 20 20 22 23 23 25 25 25 26 26 27 26 25 24 23 22 20 19 18
8 10 9 11 12 14 15 17 17 18 18 19 19 20 21 23 24 24 25 26 27 28 28 29 29 28 28 27 27 26 25 24 23
9 10 11 13 14 16 17 19 18 19 20 20 20 21 22 23 24 24 25 27 29 30 30 31 31 31 31 30 30 30 29 29 28
11 12 13 14 16 17 19 20 21 21 22 22 23 24 25 25 26 26 26 28 30 31 32 33 34 34 34 33 33 33 33 32 32
12 14 15 16 17 18 20 22 22 22 23 23 24 25 26 27 29 30 31 32 32 33 34 35 35 35 36 36 36 36 36 36 35
15 17 17 19 22 23 25 25 26 27 27 27 27 28 29 30 31 32 32 33 36 37 37 37 37 38 38 38 38 38 39 39 39
20 21 24 25 26 28 29 30 30 31 31 32 32 33 35 36 37 37 37 38 39 40 40 40 41 42 42 42 42 41 41 41 42
24 25 27 29 30 33 34 35 35 35 36 37 37 38 39 40 40 41 40 39 39 40 43 44 43 43 44 45 46 46 46 46 45
22 23 25 27 29 31 33 35 36 36 37 37 37 38 38 38 39 41 42 42 41 41 43 44 46 47 48 48 48 48 49 48 49
21 22 24 26 27 28 28 30 30 32 35 37 37 39 39 39 40 41 42 44 45 45 45 47 49 51 52 51 51 52 51 51 51
22 23 24 25 26 27 28 29 31 32 34 37 37 38 39 40 40 40 41 42 42 43 46 48 50 51 53 55 55 56 56 56 55
23 24 24 25 27 29 31 32 33 36 40 42 44 43 43 43 43 44 44 44 44 45 46 46 48 48 50 52 53 55 56 56 57
23 25 26 27 29 31 33 36 38 40 43 46 48 48 47 47 49 49 48 49 49 48 49 46 48 47 46 47 48 47 50 51 53
25 27 29 31 34 36 39 42 44 44 45 50 52 55 54 52 52 52 53 52 51 52 52 44 44 47 48 47 46 45 47 44 51
27 30 33 35 38 41 44 46 47 48 46 46 49 55 58 61 57 56 56 56 55 55 55 55 55 56 57 57 54 52 48 51 47
30 33 36 39 42 43 43 43 43 44 46 46 44 45 50 56 65 59 58 56 57 57 58 57 57 56 55 57 59 58 54 56 58
33 36 37 39 39 38 38 39 40 42 44 45 47 48 49 49 54 66 62 60 58 59 58 57 55 52 52 54 54 54 51 54 54

GFSFLT1_700_spd_009.txt.gz
Wind_Speed
11 12 13 13 13 14 16 17 18 19 20 21 21 19 20 21 19 20 19 20 20 20 20 21 21 22 22 21 19 16 16 16 16
12 13 14 15 15 16 17 17 19 21 22 22 23 22 21 21 21 22 21 21 22 22 22 23 24 24 24 24 24 22 20 18 18
13 14 15 16 17 18 19 19 19 20 21 22 22 22 22 21 22 22 23 23 24 24 25 25 25 26 26 27 27 27 25 23 21
12 13 14 16 17 17 18 18 19 19 20 22 22 23 23 23 23 23 25 24 25 27 26 27 28 29 29 29 29 29 29 28 26
14 13 13 15 15 16 17 17 19 19 21 23 24 25 25 25 25 26 26 26 27 29 29 30 31 31 32 32 32 32 31 30 30
16 16 16 17 17 18 19 21 21 22 23 25 27 27 27 28 28 28 28 28 28 29 31 33 33 34 34 34 35 34 33 33 33
18 18 19 19 19 20 20 21 21 22 22 23 23 23 25 26 26 27 27 29 31 31 31 33 34 35 36 36 36 37 36 36 36
18 19 20 20 21 21 22 23 23 24 25 25 26 27 28 29 29 29 29 29 31 33 34 35 36 36 37 38 38 39 40 39 38
21 21 23 24 25 26 26 28 29 29 30 30 30 31 32 33 33 33 33 33 33 34 38 38 38 39 38 39 40 41 41 41 41
22 24 26 27 28 29 30 31 32 33 34 34 35 35 35 36 37 38 37 38 36 36 37 40 41 40 40 42 42 42 43 44 44
22 24 26 27 28 29 30 31 31 33 33 34 34 34 35 36 37 40 40 39 39 38 38 40 42 44 44 44 44 45 45 45 46
22 24 25 27 28 29 28 29 30 32 33 33 33 34 35 36 37 38 40 41 42 43 42 42 44 46 47 48 49 50 50 49 50
23 25 27 28 29 29 30 31 32 33 34 35 36 37 38 38 40 41 42 44 43 44 45 44 44 44 46 49 50 51 52 53 53
26 28 29 30 30 31 32 33 35 36 37 39 41 41 42 42 43 43 43 44 44 43 45 45 45 46 47 48 49 51 52 53 54
28 29 29 30 32 33 34 35 37 39 43 44 44 43 43 43 43 43 46 44 45 46 48 49 49 49 49 47 47 48 46 51 53
28 29 30 31 33 36 38 41 41 41 43 45 46 45 44 42 44 45 47 48 48 49 49 47 48 40 48 42 41 44 47 47 46
28 30 32 34 36 38 39 41 42 42 42 44 46 48 47 46 44 46 47 48 49 49 49 50 48 49 52 52 55 55 57 56 54
30 33 35 36 37 39 40 41 40 39 38 39 43 50 53 56 51 50 50 50 51 51 52 52 53 54 54 53 52 52 56 61 61
32 33 34 37 38 39 38 36 38 40 42 43 42 42 46 53 60 55 53 52 52 52 53 54 54 54 56 56 54 52 55 54 57
30 32 34 34 34 34 35 36 37 39 41 43 45 46 47 46 52 62 61 60 61 61 63 64 62 60 59 55 56 54 57 58 58

GFSFLT1_700_spd_012.txt.gz
Wind_Speed
12 12 12 12 14 14 15 16 17 18 19 19 20 21 21 21 22 22 20 21 21 20 21 20 21 22 22 23 23 23 22 21 20
14 15 13 14 15 16 17 18 19 20 21 21 21 22 22 21 23 23 22 21 21 21 22 22 23 24 24 25 25 25 25 24 23
15 14 15 16 17 18 19 20 20 21 21 21 21 21 21 21 23 23 25 24 24 23 23 24 25 25 26 26 27 27 27 27 26
16 16 16 16 17 17 18 18 19 19 19 20 21 21 22 21 22 22 23 23 23 24 25 25 26 27 27 28 28 28 29 29 29
15 16 16 17 17 18 18 18 19 19 19 20 20 20 20 21 21 21 22 22 22 22 23 25 26 27 28 29 30 31 31 31 30
15 15 15 15 16 17 17 17 17 17 18 19 19 20 20 20 20 20 20 20 22 23 24 25 26 27 28 29 30 31 32 33 33
16 15 16 16 15 16 17 18 19 20 21 21 22 21 22 23 22 22 23 23 24 26 27 28 28 29 30 31 32 32 32 33 33
16 17 16 17 18 19 21 21 23 24 24 25 26 27 28 28 28 28 28 28 29 29 30 32 34 34 34 33 33 33 34 35 35
18 19 20 22 22 23 25 26 26 27 28 29 30 30 30 31 31 31 32 31 31 32 32 33 34 37 36 36 36 36 37 37 36
19 21 22 24 25 26 28 28 29 29 28 28 29 29 30 30 30 32 33 34 34 35 35 35 36 38 39 40 39 39 40 40 40
20 21 23 25 26 28 29 30 30 30 31 31 32 31 32 33 33 34 35 36 37 37 37 38 38 38 38 40 41 40 42 42 43
22 24 24 26 28 30 31 32 32 33 33 34 34 34 34 35 34 36 37 38 39 40 40 39 40 41 42 42 43 43 41 43 45
25 26 28 31 32 33 33 34 34 35 36 37 37 39 40 40 40 40 41 41 41 38 38 37 40 35 38 41 42 42 43 44 45
27 28 30 33 34 34 35 35 37 38 40 41 42 41 40 39 40 40 39 38 37 38 39 40 44 45 46 40 39 40 45 46 48
28 29 30 32 34 35 36 38 40 42 42 41 40 38 37 37 37 38 39 38 38 39 39 40 42 41 41 42 43 42 43 44 44
29 29 30 33 35 38 41 41 40 39 41 40 38 37 36 37 36 38 38 38 37 38 40 42 43 44 44 45 44 45 46 53 55
26 29 33 35 37 38 37 38 38 36 37 41 43 45 42 41 40 41 41 42 41 41 42 44 45 46 47 48 48 49 49 52 55
30 32 34 34 33 34 35 34 35 35 35 37 42 48 50 52 47 45 44 45 46 46 47 48 50 52 53 54 55 55 56 58 59
32 32 32 34 34 33 33 33 35 37 38 37 36 38 44 49 60 55 50 49 50 51 53 54 56 59 60 59 59 59 59 60 63
30 31 33 33 33 32 33 34 35 36 38 39 41 41 42 43 50 62 59 57 56 57 58 59 61 62 62 61 57 56 57 56 59

GFSFLT1_700_spd_015.txt.gz
Wind_Speed
11 11 12 12 13 13 14 14 15 16 17 18 19 20 20 20 19 20 19 19 22 22 16 19 19 20 20 20 20 21 22 23 22
11 10 11 13 14 14 15 15 16 16 17 18 18 18 17 17 17 17 18 19 19 21 20 19 20 21 21 21 21 21 22 24 24
12 11 10 11 12 12 12 13 13 13 13 14 14 15 15 15 15 16 17 17 17 18 20 19 20 21 21 21 22 23 24 24 24
12 11 10 10 10 11 11 12 13 13 14 14 14 14 15 15 15 16 17 16 17 17 19 18 19 20 21 22 23 24 24 25 26
12 12 11 10 10 10 10 10 10 11 13 14 14 14 15 15 16 16 15 16 18 19 18 19 20 21 22 22 22 23 24 25 26
12 10 10 9 9 9 10 12 13 14 15 16 17 17 17 18 17 17 16 18 19 20 21 22 23 24 24 25 25 26 26 26 26
10 10 10 11 13 14 15 16 18 20 20 21 23 22 22 23 23 22 22 22 22 22 23 25 26 29 28 29 29 29 29 29 29
13 14 15 15 16 18 20 20 21 21 21 21 22 21 21 22 22 23 23 23 23 24 25 26 27 28 31 32 33 33 31 32 32
14 16 19 20 20 21 22 23 24 25 26 26 26 26 26 25 26 26 27 26 27 27 26 26 28 29 30 30 32 33 34 34 35
16 19 21 22 23 24 26 28 28 28 28 27 27 27 27 27 27 28 28 30 31 32 31 31 32 32 31 32 34 34 34 35 36
18 19 20 23 24 25 27 29 30 31 31 30 30 30 30 30 32 33 35 36 37 38 38 37 36 32 28 29 31 35 37 37 37
21 22 23 26 27 29 30 30 30 32 33 34 35 36 37 37 37 37 36 35 35 36 37 36 36 36 34 35 35 35 35 34 37
22 23 25 28 30 31 31 32 32 34 36 37 37 37 36 37 36 35 35 35 34 34 35 36 36 37 36 39 41 40 42 39 40
23 25 27 29 30 31 32 35 37 39 38 37 35 35 34 34 33 34 34 34 35 34 34 35 36 37 38 39 41 41 41 43 46
24 25 27 30 31 34 36 37 38 38 36 36 34 32 32 34 34 34 34 34 34 33 35 35 35 35 37 38 39 40 42 43 43
24 26 28 31 34 36 35 33 34 36 35 34 33 32 32 33 32 32 32 30 31 32 34 35 37 39 39 39 41 42 44 47 50
23 27 30 32 33 32 33 34 33 33 36 37 38 37 32 34 33 32 34 36 36 37 38 39 40 43 45 45 46 47 49 53 54
26 28 30 31 31 33 34 34 33 31 32 36 38 42 43 44 40 38 39 41 42 42 43 44 46 48 48 50 51 51 52 56 56
26 28 29 30 32 33 33 33 33 34 33 32 34 38 43 48 56 49 43 43 45 46 47 48 50 51 51 52 53 55 57 56 58
27 28 29 31 32 33 33 33 34 36 36 38 38 39 40 43 51 61 57 52 48 48 49 49 51 52 52 54 55 58 59 57 56

GFSFLT1_700_spd_018.txt.gz
Wind_Speed
8 7 8 9 9 11 11 11 12 12 12 13 14 14 15 14 14 15 15 15 17 15 15 14 17 19 19 17 17 17 17 17 17
7 6 7 7 8 9 9 10 10 10 10 11 11 11 12 12 13 14 15 14 15 17 17 15 16 19 19 19 19 18 19 19 19
7 7 7 6 7 7 7 7 7 9 9 10 11 12 12 13 14 15 16 15 15 16 17 16 17 18 20 19 20 20 21 21 20
7 6 6 6 7 7 8 8 8 9 10 10 11 12 13 13 14 14 15 16 15 15 16 18 19 18 19 20 20 20 22 23 23
7 6 6 6 7 8 9 10 11 12 13 14 15 15 16 16 15 16 17 17 18 18 19 20 20 20 21 22 22 22 22 23 24
9 8 8 10 11 11 12 14 15 17 18 19 20 20 20 20 20 21 21 21 21 21 22 22 22 23 23 24 25 25 25 26 26
9 10 10 11 13 15 17 18 19 19 20 21 20 20 20 20 20 21 21 22 22 22 23 23 23 23 25 26 27 26 27 28 27
10 11 13 13 15 16 17 17 17 17 18 19 20 21 22 22 22 22 23 23 22 22 23 23 23 25 26 27 27 27 27 28 29
14 14 15 16 16 16 18 19 21 22 23 23 23 24 25 26 26 26 27 28 28 27 26 25 26 26 27 28 26 26 28 31 32
15 15 17 18 18 19 21 23 24 25 24 24 24 24 25 27 29 30 31 32 32 32 32 32 31 31 32 33 32 31 31 34 35
17 17 18 18 20 22 23 25 26 26 26 27 27 28 30 30 31 30 30 31 31 32 33 34 33 34 35 37 36 35 36 36 37
19 19 20 21 23 24 26 28 28 29 30 31 32 32 32 31 31 31 30 30 30 30 31 32 34 34 35 37 37 38 41 43 43
20 20 21 23 25 26 27 29 31 32 33 31 30 30 32 32 30 29 30 31 31 32 33 33 35 37 38 38 38 39 40 41 45
21 21 22 24 25 27 30 33 33 32 31 31 31 31 30 30 31 31 32 33 33 33 33 33 34 35 36 37 37 37 38 40 40
21 22 24 25 27 30 32 33 33 32 32 31 31 30 32 31 31 30 30 31 32 34 34 34 34 35 35 37 38 40 42 44 44
21 22 24 27 29 31 30 30 31 33 33 32 31 30 32 31 30 30 31 32 33 34 35 36 37 38 39 40 42 43 45 47 48
21 23 26 29 30 30 30 31 32 34 35 34 35 35 32 33 32 31 34 36 37 38 39 41 42 43 44 45 46 47 48 50 51
22 25 27 29 29 30 31 31 32 33 35 37 39 41 42 42 38 38 39 42 44 44 45 46 47 48 50 50 50 51 52 52 52
24 26 27 28 28 30 31 33 34 34 35 36 38 40 44 48 53 46 43 45 47 49 50 51 52 53 54 54 54 55 56 55 54
25 26 27 28 30 32 33 35 37 37 37 38 39 39 42 45 53 60 57 52 50 51 52 53 53 54 55 55 54 55 55 55 56

GFSFLT1_700_spd_021.txt.gz
Wind_Speed
5 4 5 6 7 8 9 10 10 12 12 12 13 14 14 14 14 15 14 15 16 15 14 16 16 17 16 17 15 16 17 16 16
5 5 4 5 6 6 7 9 9 10 10 11 12 12 13 14 14 15 15 15 16 17 16 16 16 16 18 19 19 18 19 19 19
4 4 5 5 6 7 8 8 9 10 10 12 13 13 15 16 17 17 17 17 17 17 18 17 17 18 18 19 20 21 22 20 21
7 5 5 6 7 8 9 9 10 10 11 13 14 16 16 17 18 19 19 19 19 18 18 18 19 19 20 21 22 22 21 21 22
7 6 6 5 5 7 8 10 11 12 14 15 15 16 17 18 20 22 23 23 23 22 21 20 21 21 21 23 24 24 23 23 24
8 8 8 8 9 10 10 12 13 14 14 15 16 16 17 17 18 20 22 22 23 24 23 22 24 25 25 24 24 24 24 24 24
11 10 11 12 12 12 13 13 13 14 15 16 17 17 17 17 18 19 20 20 20 21 22 24 25 24 25 26 27 25 25 24 24
12 12 12 13 14 14 14 15 15 16 17 18 19 19 20 20 20 20 20 20 21 21 22 23 24 25 26 27 26 27 26 26 25
13 14 14 15 15 14 15 17 19 20 20 21 21 22 22 23 24 24 25 26 26 26 27 26 26 29 30 31 31 30 28 29 31
14 15 15 16 16 17 17 20 21 21 21 22 23 25 26 27 28 28 29 28 29 29 30 29 30 30 30 33 34 35 36 37 38
15 16 17 17 18 19 20 21 21 22 23 25 27 28 28 28 27 28 29 30 30 29 29 31 31 32 32 33 35 36 38 39 40
16 17 18 19 21 21 22 22 23 25 27 29 29 28 28 28 29 28 28 28 29 30 31 32 33 34 35 36 37 38 39 40 41
18 19 20 21 23 23 24 26 28 30 29 27 28 29 29 28 28 29 30 30 31 31 31 32 34 35 36 37 38 38 39 39 40
19 20 21 23 24 25 28 30 30 29 28 29 29 29 29 29 29 31 32 31 31 32 33 34 35 36 38 39 40 41 42 42 42
20 21 21 23 25 28 30 30 29 28 28 29 29 30 30 30 31 31 31 31 33 33 35 37 38 40 42 42 43 45 46 47 47
21 21 22 25 27 29 30 30 30 31 31 31 29 30 31 31 32 31 32 33 35 36 39 40 41 42 43 45 47 48 49 51 52
20 21 24 26 28 29 29 30 31 32 33 34 35 35 33 33 33 33 34 35 37 39 42 44 45 47 48 50 51 53 54 56 58
20 23 26 27 28 29 29 30 31 33 35 37 38 41 42 43 38 36 36 39 41 42 45 47 49 50 52 54 55 56 59 61 61
22 25 26 28 28 29 29 31 33 35 37 38 39 40 43 46 50 42 41 43 45 46 48 50 52 54 56 58 60 61 63 63 63
23 26 27 28 29 30 31 33 36 38 39 40 40 39 41 43 50 55 50 46 47 50 53 56 57 58 60 62 63 63 64 64 64

GFSFLT1_700_spd_024.txt.gz
Wind_Speed
2 2 2 3 4 5 6 7 8 8 9 10 11 13 14 15 15 15 15 16 15 15 15 16 16 16 16 16 17 16 16 15 17
4 2 3 3 3 4 5 6 6 7 8 9 10 11 13 14 15 15 16 17 18 17 17 17 16 17 17 18 18 18 18 18 18
4 3 3 3 4 4 5 6 7 7 9 9 11 12 13 15 16 17 17 17 17 18 18 19 18 18 19 18 18 18 18 18 19
7 5 5 5 5 4 5 6 6 7 8 10 12 13 14 15 16 18 18 17 17 18 17 18 19 18 18 19 20 20 21 21 21
6 5 5 5 5 6 7 7 9 10 10 10 11 12 13 14 15 17 17 17 17 18 18 18 19 20 21 21 21 22 22 22 22
7 7 7 8 8 8 9 9 9 9 10 12 13 14 15 16 16 17 18 18 18 18 17 18 20 19 19 21 23 24 24 24 23
9 9 10 10 10 10 10 10 10 11 13 14 15 15 16 17 19 18 19 20 19 19 20 20 21 22 22 22 24 24 25 24 23
12 11 11 12 12 12 13 13 13 13 14 16 16 16 17 18 19 19 20 21 23 24 24 24 26 27 26 26 26 26 28 28 27
13 12 12 14 14 14 14 15 17 16 17 18 18 18 20 21 23 23 23 23 23 24 24 26 27 27 28 29 31 33 33 33 32
14 13 14 14 15 17 17 18 19 19 19 20 21 23 24 24 24 23 23 24 25 25 26 27 27 27 28 29 30 32 34 35 36
15 15 15 15 16 16 18 19 20 20 22 24 25 25 23 23 24 24 25 25 25 26 27 28 29 29 30 31 31 32 33 35 36
16 16 16 16 17 18 19 20 21 22 24 26 25 24 25 26 26 26 26 26 26 28 29 30 30 30 31 32 32 34 34 36 36
16 17 17 18 19 20 21 23 25 26 26 25 25 26 26 27 27 27 27 28 29 30 29 30 31 31 32 33 35 36 37 38 39
16 17 17 19 21 22 24 26 27 26 26 26 27 27 27 28 28 29 30 30 30 31 32 33 33 34 35 36 37 39 41 41 41
17 17 19 21 22 24 27 28 28 27 26 26 26 26 27 29 30 31 31 31 31 33 34 35 37 38 39 41 42 43 44 46 46
17 18 20 21 24 27 28 28 28 27 27 27 26 28 29 30 31 31 32 33 33 34 36 38 39 40 42 43 45 46 47 49 50
17 18 20 23 26 28 28 28 29 28 28 29 31 32 31 31 31 31 32 33 35 36 38 40 41 42 43 45 48 49 51 53 55
17 19 22 25 27 28 29 29 29 30 31 33 35 38 39 41 37 33 33 35 36 37 39 41 43 45 47 50 52 53 55 57 59
18 21 23 26 27 29 30 30 31 32 33 35 36 39 42 44 48 42 37 38 39 41 42 44 47 50 52 55 58 59 60 61 63
18 21 24 27 29 31 32 33 33 34 36 38 39 39 40 41 46 49 44 40 40 44 47 50 53 55 57 60 62 64 66 67 67

GFSFLT1_700_spd_027.txt.gz
Wind_Speed
1 2 2 1 2 3 3 4 5 6 7 7 8 9 10 11 11 12 13 13 14 13 14 15 14 15 15 15 16 17 17 17 17
1 1 1 1 2 2 2 3 3 5 5 7 8 9 10 11 12 13 13 13 13 13 13 13 14 14 15 15 15 16 17 18 18
3 1 1 2 2 2 3 4 4 5 7 8 8 9 10 11 12 12 12 13 13 12 12 12 12 12 13 14 14 15 16 18 18
5 4 3 3 3 3 4 4 5 6 6 7 9 10 11 12 13 13 13 14 14 14 14 14 15 15 15 15 16 17 17 18 18
5 4 4 4 5 6 6 7 8 9 8 9 10 10 12 12 13 15 15 15 15 15 16 13 14 14 15 16 19 20 21 20 21
6 6 6 6 6 7 8 9 10 10 10 10 11 12 13 14 14 14 16 17 16 16 17 17 18 19 21 20 21 22 23 22 21
8 8 7 7 8 9 10 10 11 11 12 14 14 15 15 15 15 16 16 17 18 19 18 19 21 21 22 23 24 26 27 24 22
10 10 10 9 9 10 12 12 13 14 13 14 15 15 17 16 17 18 19 21 21 22 22 24 23 23 25 26 27 28 30 30 29
13 13 13 12 12 13 13 14 14 15 15 16 17 18 19 20 20 20 20 20 21 22 23 23 23 23 25 26 27 29 30 32 33
16 15 15 14 14 14 15 16 17 17 17 18 20 21 21 20 19 20 20 21 22 22 23 23 23 24 25 26 26 27 28 30 31
17 16 15 15 15 15 16 16 18 19 20 22 22 22 21 20 21 21 21 22 22 23 24 25 26 26 27 26 26 27 27 28 29
17 16 15 15 15 16 17 17 18 20 21 22 22 21 21 21 22 22 23 23 24 25 26 27 27 28 29 30 30 30 30 30 30
17 15 14 15 16 17 17 18 20 21 22 23 22 22 22 22 22 23 24 26 27 28 29 30 30 31 32 32 33 34 35 35 35
16 14 15 16 17 17 18 20 22 22 23 23 23 23 22 23 24 25 26 28 29 30 32 33 34 34 35 36 37 37 38 39 39
16 14 15 16 18 18 21 23 24 23 23 23 23 23 23 24 25 26 28 30 31 32 33 34 35 36 37 38 39 40 40 41 42
21 16 15 17 18 20 23 25 25 25 25 24 24 24 25 25 26 27 29 30 32 33 35 36 38 38 40 41 41 42 43 44 46
21 16 15 17 19 22 24 26 27 27 27 27 27 27 27 26 27 29 30 32 33 34 36 38 39 41 42 43 44 46 48 50 51
18 15 15 17 20 23 25 27 29 29 29 29 30 32 33 34 31 30 31 32 33 34 36 38 39 41 44 46 48 50 52 54 56
14 14 16 19 21 24 27 29 30 31 31 31 31 33 36 38 41 38 38 39 38 39 39 40 42 45 48 51 54 57 59 61 62
13 14 17 20 23 26 29 31 33 34 33 33 34 35 37 39 42 45 41 39 38 39 42 43 46 49 52 56 59 62 65 67 69

GFSFLT1_700_spd_030.txt.gz
Wind_Speed
3 4 4 4 3 3 4 5 6 7 8 8 9 10 11 10 10 11 11 12 12 12 13 12 13 13 13 14 15 16 16 16 17
2 3 3 2 2 2 3 4 5 5 6 6 7 8 9 9 9 10 10 10 10 11 11 11 11 11 12 13 13 14 15 16 17
1 0 1 1 2 2 3 4 5 6 7 7 8 8 9 10 10 11 11 12 12 12 12 13 12 12 13 13 13 14 15 16 17
3 3 2 2 2 2 3 4 6 7 9 10 10 11 11 12 13 13 13 13 14 13 14 14 13 13 14 14 15 16 17 18 18
4 3 3 3 4 4 5 7 8 9 9 10 11 12 12 13 14 15 15 15 16 15 16 16 17 17 16 16 17 18 20 20 20
6 5 5 5 6 7 8 9 9 10 10 11 12 13 14 14 15 17 17 18 18 18 17 19 20 19 20 21 24 24 23 23 22
9 8 8 8 9 9 10 10 10 11 13 14 15 15 15 16 17 17 19 20 21 20 21 22 22 22 23 23 25 27 28 28 28
11 11 11 11 10 11 12 12 12 13 14 15 15 15 16 17 19 19 21 22 23 22 21 21 22 22 24 26 27 28 29 30 31
14 13 14 13 13 13 14 14 14 15 15 16 16 17 18 19 20 20 20 20 21 22 22 21 21 22 23 24 24 26 27 28 30
17 16 15 15 15 15 15 15 16 17 17 17 18 19 19 19 19 19 20 21 21 21 22 21 22 22 23 24 25 26 27 28 29
20 18 16 16 15 15 15 16 17 18 20 20 20 20 20 19 20 20 21 21 22 22 22 23 24 25 26 27 26 27 28 28 29
20 18 16 15 15 15 15 16 17 19 21 21 21 20 19 19 20 21 22 22 23 24 25 26 27 28 29 30 31 32 32 31 32
19 18 15 14 14 14 15 16 18 21 22 22 21 20 20 20 21 21 23 24 25 27 28 29 30 31 32 34 35 35 36 36 37
20 16 14 13 14 14 16 17 20 22 22 22 22 22 21 22 22 23 24 25 26 28 30 32 33 34 35 36 37 38 39 39 40
15 19 17 14 14 15 17 19 20 21 22 23 23 23 23 23 24 25 26 28 29 31 32 34 36 37 38 39 39 40 41 41 42
18 23 20 16 15 16 19 20 21 22 24 25 25 25 25 26 26 27 29 29 30 33 35 36 38 39 39 40 41 42 42 43 44
24 27 21 17 15 17 19 20 22 24 25 27 27 26 27 27 27 29 30 32 34 35 36 38 39 40 41 42 43 43 45 46 48
21 23 20 16 15 17 19 21 23 25 26 27 29 31 31 32 30 30 32 33 34 35 35 36 37 39 41 43 44 46 49 51 54
20 19 19 16 16 18 20 22 25 27 29 29 30 30 32 35 37 36 38 39 38 37 35 35 37 40 43 46 49 51 54 57 60
24 19 17 16 17 19 21 24 27 29 31 32 33 33 35 37 39 39 37 41 42 43 41 41 43 46 49 52 56 59 62 64 67

GFSFLT1_700_spd_033.txt.gz
Wind_Speed
7 5 5 4 4 5 5 5 6 6 6 7 8 9 10 11 11 10 11 12 12 12 13 13 12 13 13 13 14 14 14 14 16
4 4 4 3 3 2 2 3 4 5 6 7 8 9 9 10 11 11 12 12 12 12 12 11 11 11 12 12 12 13 14 14 15
4 3 2 2 2 3 3 4 5 5 6 7 8 9 9 11 12 12 13 13 14 14 14 14 13 13 12 13 14 13 13 14 15
5 4 3 3 4 4 4 5 6 7 9 10 10 10 11 12 13 13 13 14 15 15 15 16 16 15 14 12 14 15 15 15 16
6 5 5 5 5 6 7 7 8 9 10 10 11 11 12 14 14 16 16 16 16 17 17 18 18 17 17 18 19 18 18 17 16
7 7 7 7 8 8 8 9 10 10 11 12 12 13 15 16 17 17 18 18 18 18 19 20 19 19 20 20 22 24 24 23 23
10 9 9 9 10 10 10 10 11 12 13 13 14 15 16 17 18 17 20 21 22 22 22 21 21 22 23 24 23 24 24 26 28
13 12 12 12 12 11 12 12 12 13 14 15 16 17 18 19 21 19 22 23 22 23 21 19 20 21 22 23 22 24 25 26 27
15 16 15 16 15 14 14 14 14 14 15 16 17 18 20 21 23 21 22 22 20 22 20 20 20 21 22 22 22 23 25 25 26
18 18 18 17 16 15 15 16 16 16 17 17 18 20 22 23 23 23 21 20 20 20 21 21 21 22 23 24 24 24 25 26 27
20 21 20 18 18 17 16 16 18 18 18 18 20 21 22 22 21 23 19 20 20 20 21 22 23 24 25 26 27 27 27 28 29
21 23 20 18 19 18 17 16 17 19 19 20 21 21 21 20 20 21 21 19 20 21 22 23 24 26 27 29 30 30 31 32 32
23 22 21 18 18 17 17 17 17 19 21 22 21 20 20 20 21 21 21 22 22 23 25 25 27 28 30 32 33 34 35 35 36
28 23 19 17 17 16 16 16 17 20 21 21 21 21 22 22 23 23 24 24 26 27 27 29 30 31 33 35 36 36 37 38 38
29 23 21 16 16 16 17 16 18 20 20 21 23 23 24 24 25 26 26 27 28 30 31 32 34 35 35 37 38 39 39 39 39
24 21 20 21 20 18 17 16 18 19 21 22 24 25 24 26 26 27 29 29 31 32 34 35 37 39 40 41 40 40 41 41 41
23 24 23 20 24 19 17 17 18 19 21 24 25 27 29 25 27 28 29 31 34 35 36 37 39 41 42 42 42 42 42 43 45
28 27 24 27 23 18 17 17 19 20 22 24 27 30 31 31 31 31 31 33 34 35 36 38 39 41 42 42 42 43 44 46 49
29 26 25 25 20 18 18 18 19 22 24 26 28 31 33 35 35 35 37 38 38 39 38 37 36 38 40 42 44 46 47 50 53
29 27 25 25 20 19 19 19 21 24 27 29 32 35 37 38 39 38 37 39 41 43 44 43 43 43 45 48 51 53 55 58 60

GFSFLT1_700_spd_036.txt.gz
Wind_Speed
6 5 4 3 3 3 3 4 4 4 5 5 6 7 8 9 10 10 11 12 13 13 12 13 13 13 13 12 11 12 12 12 13
7 5 4 3 2 2 2 3 3 3 4 5 6 7 9 10 11 11 11 11 11 12 12 13 13 13 12 11 11 11 10 10 11
7 6 5 4 4 3 2 3 4 4 4 5 6 7 9 10 10 13 10 11 12 12 13 14 15 15 14 13 11 12 12 10 11
6 5 5 4 4 4 4 4 5 6 7 8 8 9 10 12 12 12 13 13 13 13 14 15 16 16 15 15 14 11 10 9 12
6 6 6 6 5 6 6 6 6 7 8 9 9 10 12 14 13 13 16 16 16 15 17 16 17 17 17 18 18 19 19 17 18
8 9 9 9 8 8 8 8 8 9 10 11 11 12 13 15 15 14 17 17 18 18 19 19 19 20 20 20 20 20 21 22 23
8 9 9 10 11 10 10 9 10 11 10 12 13 14 15 17 16 17 19 20 21 20 18 19 19 19 20 19 19 20 22 22 24
11 11 11 12 12 12 13 12 12 13 13 14 14 15 16 20 18 18 21 22 22 21 18 18 18 19 19 19 19 20 21 22 23
12 14 14 14 13 14 14 15 15 15 15 16 16 17 18 21 21 20 20 21 21 20 18 18 18 18 18 19 19 20 21 21 23
13 17 17 17 17 16 17 17 16 16 16 16 17 19 20 21 24 21 20 20 20 19 19 18 18 18 19 20 21 21 22 23 24
16 17 19 19 18 18 18 18 18 17 18 17 18 19 21 22 23 21 19 19 19 18 19 19 19 20 21 22 23 23 24 25 27
17 19 20 20 19 20 19 19 18 18 18 18 18 20 21 21 21 22 19 19 20 19 20 21 21 22 23 25 26 26 27 28 30
21 21 21 21 20 20 19 19 19 18 18 18 19 19 19 20 20 21 21 21 20 21 23 24 24 25 27 29 30 31 31 32 33
24 25 25 24 20 19 19 18 18 18 18 18 18 19 19 20 21 22 23 23 24 25 25 27 28 28 30 32 34 35 35 36 36
26 26 28 24 20 18 16 17 17 18 17 17 18 19 20 22 23 24 25 25 26 28 29 30 31 32 33 35 36 37 38 39 39
27 28 27 25 21 18 19 19 17 18 17 17 19 19 21 22 23 25 27 28 28 29 30 32 33 34 36 38 40 40 40 39 40
29 29 29 24 20 20 21 24 18 18 17 18 19 21 23 23 25 27 28 30 31 32 33 34 35 37 39 40 41 41 41 40 41
28 27 28 27 23 24 27 24 19 17 18 19 22 25 26 27 29 30 31 32 33 33 34 35 36 38 40 41 40 41 41 41 43
29 28 27 27 27 24 23 22 20 19 19 20 23 26 29 32 33 33 35 35 35 35 36 36 37 38 39 39 40 41 42 43 46
32 32 30 31 27 28 26 23 22 20 21 23 26 29 32 36 39 37 36 36 37 38 40 41 41 42 43 44 44 46 47 48 50

GFSFLT1_700_spd_039.txt.gz
Wind_Speed
7 4 3 2 1 1 2 2 2 3 3 4 5 6 7 8 9 9 10 11 10 11 11 11 11 11 10 10 9 9 9 9 10
7 6 5 3 2 2 1 1 2 2 3 5 6 7 8 8 10 8 8 9 10 11 11 12 12 11 12 12 10 9 9 8 7
7 7 6 5 5 4 3 2 2 2 3 4 5 7 8 9 9 9 9 9 9 11 12 12 13 13 13 13 10 7 7 9 9
6 6 6 6 5 4 3 3 2 3 4 5 6 8 9 9 9 9 10 10 10 12 14 13 14 14 14 14 14 14 14 11 10
5 6 6 6 6 5 5 4 5 5 5 6 7 10 10 10 11 12 13 14 12 14 14 15 15 15 16 15 15 16 17 18 18
5 5 6 7 7 6 6 6 7 8 9 9 10 12 12 11 12 13 14 15 15 15 16 17 18 17 16 16 16 17 18 18 19
6 6 7 8 8 9 9 9 10 10 11 11 12 13 13 12 13 15 16 18 18 16 17 17 17 17 15 15 16 17 17 18 19
7 7 7 8 9 11 11 12 13 13 12 11 13 15 16 14 14 16 17 19 20 17 17 16 18 17 16 16 15 16 17 17 18
11 9 9 9 10 12 13 13 14 14 14 15 15 16 18 17 17 17 18 18 19 17 17 17 17 18 17 17 16 16 17 18 19
13 12 11 13 12 13 13 14 15 16 15 15 17 18 19 18 18 17 18 18 18 18 18 18 18 18 18 18 18 18 19 20 21
14 14 15 15 17 17 16 16 16 17 17 17 17 18 19 20 19 17 17 18 18 18 19 19 19 19 20 20 20 21 21 22 23
15 16 17 17 18 19 19 19 19 18 17 18 18 18 19 20 18 18 17 18 18 19 20 20 21 21 22 23 24 24 24 25 26
20 20 20 21 21 21 21 20 20 19 19 17 17 17 17 18 18 17 18 19 19 20 22 22 23 24 26 27 28 29 29 29 30
24 24 23 22 22 23 21 21 20 20 19 17 15 16 17 17 17 18 19 20 20 21 22 24 26 27 29 30 31 32 33 33 34
26 26 23 22 22 22 21 20 18 19 19 17 15 15 16 17 18 19 20 21 23 24 25 26 28 29 31 32 33 34 35 36 36
24 26 24 23 23 22 20 20 19 20 20 17 16 15 15 17 18 20 22 23 25 26 27 29 30 31 32 34 35 36 37 37 38
24 25 24 24 24 23 20 20 22 23 22 19 17 16 16 18 20 22 25 28 29 30 31 32 32 33 35 36 37 38 39 39 39
25 25 27 25 24 24 23 22 24 23 22 21 19 19 20 22 23 25 28 31 32 33 34 34 35 35 36 37 38 38 38 38 40
26 27 29 27 26 26 25 25 22 22 23 22 20 21 22 24 27 28 32 33 35 36 36 37 38 39 39 39 38 38 39 40 42
28 30 29 30 29 28 28 29 25 27 27 24 24 24 26 28 30 31 33 35 37 38 38 39 40 41 42 41 41 41 42 42 44

GFSFLT1_700_spd_042.txt.gz
Wind_Speed
5 3 1 1 0 1 1 0 1 2 3 4 5 5 7 8 8 10 9 9 9 9 10 9 9 9 9 9 8 8 7 7 7
7 7 5 3 2 1 1 1 2 3 4 5 6 6 8 7 7 7 8 7 8 8 9 9 10 10 10 10 9 8 8 8 7
7 7 7 6 5 4 3 2 1 2 3 5 6 6 6 7 7 7 7 8 9 10 10 10 11 11 11 10 6 5 3 3 5
5 6 6 6 5 4 3 2 3 4 5 7 8 8 8 8 9 9 9 9 10 11 11 11 12 12 13 12 12 13 13 13 12
5 5 5 5 5 4 4 5 5 6 7 8 8 8 8 9 10 10 11 10 11 12 13 13 14 15 14 15 15 15 15 15 16
4 5 5 4 5 5 6 6 7 8 9 10 11 9 9 10 11 12 13 13 12 13 15 17 17 15 15 15 15 16 16 16 17
5 6 5 5 6 7 7 8 8 9 10 11 13 11 11 11 13 14 15 16 15 14 16 17 17 15 15 15 16 16 16 16 16
8 8 8 7 7 7 8 9 9 10 11 13 14 13 13 13 13 15 17 18 16 15 17 17 17 16 16 15 16 16 16 16 16
11 11 9 10 10 9 11 11 12 12 13 13 14 14 14 15 15 16 17 18 17 16 16 17 17 17 17 17 16 17 17 17 18
14 14 12 13 13 12 13 14 15 15 16 15 16 15 14 15 16 17 17 17 16 17 16 16 17 17 17 18 19 19 19 19 20
17 15 14 15 15 14 15 15 16 17 17 17 18 17 15 15 15 16 16 17 17 17 17 18 18 19 19 20 21 21 21 22 23
17 16 15 17 17 17 18 18 19 19 19 19 19 19 17 15 15 15 16 17 17 18 19 19 20 22 22 23 24 25 25 26 26
18 18 19 20 21 21 22 21 21 21 21 20 20 20 18 16 14 14 15 16 17 18 19 20 22 24 26 27 28 28 29 29 30
20 21 22 23 23 22 20 19 20 20 20 20 20 19 18 16 15 14 15 16 18 19 21 23 24 26 28 29 30 31 31 32 33
22 23 23 24 21 19 20 19 19 18 17 19 20 19 18 17 15 15 15 17 19 21 23 25 26 28 30 32 33 33 34 34 35
21 23 23 23 21 20 20 19 17 18 18 21 21 20 19 19 17 17 18 19 21 23 25 26 28 30 32 33 35 35 36 37 38
23 22 23 23 23 21 21 20 19 19 21 23 23 22 20 20 19 20 21 23 25 27 28 30 31 33 34 35 36 37 38 39 40
24 23 24 25 25 23 22 23 21 21 23 24 23 23 23 22 22 22 24 26 28 30 32 34 36 37 37 37 38 38 39 39 40
28 25 25 26 26 28 26 26 22 24 25 25 23 26 26 25 25 25 27 29 31 33 35 37 40 41 40 40 40 40 39 38 40
33 28 27 26 29 30 30 29 28 29 29 26 29 30 29 27 27 28 30 32 34 36 38 40 42 43 43 43 43 41 40 41 43

GFSFLT1_700_spd_045.txt.gz
Wind_Speed
6 4 3 2 1 0 0 1 2 2 2 3 3 4 4 5 6 7 8 8 9 10 9 9 8 9 8 7 7 6 5 5 5
6 6 5 4 3 2 1 1 1 2 3 4 5 5 5 6 6 6 6 7 8 7 8 8 8 8 7 6 5 4 6 6 7
7 6 6 6 6 5 5 5 5 5 6 6 6 6 6 7 7 8 8 8 9 9 9 9 11 11 9 8 9 7 5 2 1
7 6 6 6 5 5 4 4 4 5 6 7 8 9 9 9 9 8 8 9 10 11 11 11 12 12 12 12 12 12 13 13 13
7 6 6 6 5 5 5 5 6 7 7 7 8 8 9 10 11 10 10 10 11 12 13 14 15 14 15 15 15 15 15 14 15
5 6 5 5 5 5 6 6 6 7 8 8 8 9 9 10 11 12 12 11 11 13 15 16 16 15 16 16 15 14 15 15 16
6 5 6 5 6 6 7 8 8 9 10 9 9 9 10 11 12 13 14 14 13 14 16 16 16 15 15 15 16 15 15 15 16
9 8 8 7 8 8 8 9 10 11 12 12 11 11 11 12 13 14 15 16 15 15 16 17 16 15 15 15 15 15 15 16 16
13 12 11 11 10 10 10 11 11 12 14 14 14 14 14 14 14 15 16 16 16 15 16 17 16 16 16 16 16 16 17 17 18
17 16 15 14 13 12 12 13 13 13 14 16 16 16 16 16 16 16 16 16 16 17 17 17 17 17 17 18 19 19 19 20 20
20 18 16 16 15 13 13 14 15 15 17 18 18 17 17 16 16 16 16 16 16 16 17 18 20 20 20 21 21 22 22 23 23
21 18 17 18 16 16 16 17 18 19 20 20 20 18 17 17 16 16 16 16 15 16 17 18 20 21 22 23 24 25 25 26 27
21 19 18 19 18 18 20 20 21 19 19 19 19 19 17 17 17 16 16 15 15 16 17 18 20 22 23 25 25 26 27 27 29
22 20 19 21 20 22 22 21 19 18 18 18 18 18 18 18 17 16 16 15 16 16 18 19 21 23 25 27 28 29 30 30 30
24 23 24 23 22 22 22 21 19 17 17 17 18 18 19 19 18 17 17 17 17 18 20 22 24 25 27 29 30 31 32 33 34
27 25 24 24 23 23 24 21 18 17 17 17 17 19 21 21 20 20 18 18 20 21 23 24 26 28 30 31 32 33 35 35 36
31 28 25 25 24 25 24 21 19 19 19 19 20 22 23 23 23 22 22 22 22 24 25 28 30 31 33 34 35 36 36 37 38
32 29 28 27 27 25 25 24 23 22 21 21 23 24 25 23 24 25 25 26 26 27 29 31 33 35 37 38 39 40 39 40 40
33 32 30 30 26 24 27 27 28 27 25 22 26 23 28 27 30 29 29 29 29 30 32 34 36 39 41 42 42 43 42 42 42
36 32 35 32 29 25 25 28 31 30 30 31 29 29 29 32 32 33 32 32 32 33 34 37 40 43 45 46 46 46 45 45 44

GFSFLT1_700_spd_048.txt.gz
Wind_Speed
9 8 6 4 2 2 2 2 3 3 4 4 4 3 3 3 4 5 6 6 7 8 7 8 9 8 7 7 6 5 5 6 6
9 8 7 7 6 4 3 3 4 4 5 4 3 3 3 3 4 5 5 6 6 7 7 8 9 9 9 9 6 6 4 4 4
9 8 7 7 7 6 6 6 5 5 5 5 5 5 4 5 5 5 6 8 7 7 7 9 9 9 9 10 9 8 8 5 2
9 8 8 7 6 6 6 6 6 6 5 5 5 6 6 6 6 6 7 8 8 8 9 10 10 10 11 11 12 11 11 12 13
6 7 8 8 8 7 7 7 7 7 7 7 7 7 7 8 8 8 8 9 9 10 11 12 11 12 13 13 13 13 13 14 15
3 3 3 4 6 6 7 8 8 8 8 8 9 9 9 10 10 10 10 10 10 12 13 13 13 13 14 14 13 13 13 13 14
6 5 4 3 4 4 6 7 7 8 8 9 9 10 10 11 12 12 12 12 11 14 14 14 14 13 14 14 13 13 13 13 14
10 9 8 7 6 6 7 8 9 9 9 10 10 11 12 12 12 13 13 13 13 14 14 14 14 13 14 14 14 14 14 14 14
13 13 13 11 11 10 9 9 10 10 10 11 12 13 13 14 14 14 14 13 13 13 13 13 14 14 14 14 14 15 16 16 16
16 17 16 15 14 14 12 12 11 12 13 13 15 15 16 15 15 15 15 14 13 13 13 14 14 14 14 15 15 16 17 18 19
19 19 19 18 18 16 15 14 13 14 16 17 17 18 18 17 16 16 15 15 14 14 14 14 14 14 14 15 16 17 18 19 21
21 22 21 20 20 18 17 16 16 17 19 19 18 17 17 17 17 16 16 15 14 13 14 14 15 15 16 17 18 18 19 20 22
22 22 22 22 22 19 19 19 18 20 20 18 17 16 16 16 17 17 16 16 15 15 14 14 15 17 19 20 21 22 22 22 24
23 22 23 23 22 21 21 22 20 21 20 19 17 16 15 16 16 17 17 16 16 16 17 17 18 19 21 22 24 25 26 27 27
25 24 24 25 24 23 23 23 22 22 21 19 17 16 16 16 17 18 18 18 18 18 18 19 20 21 22 24 26 28 29 30 31
28 26 26 25 24 24 25 25 23 23 22 20 18 18 18 17 18 20 20 21 21 22 22 22 23 23 25 26 28 30 32 33 34
31 28 28 28 28 28 27 25 24 25 23 21 20 21 20 19 20 21 22 23 24 26 26 25 26 26 27 29 31 33 34 36 37
34 32 32 31 31 30 29 25 25 26 26 23 23 23 21 22 22 22 22 25 28 30 30 30 30 29 31 32 34 35 37 39 39
39 36 35 32 32 32 28 27 28 29 27 27 28 27 25 27 27 25 26 29 31 32 33 34 34 34 35 36 38 39 41 43 42
40 37 36 33 33 35 34 33 34 30 30 28 30 32 30 30 33 29 32 34 32 33 34 36 37 38 39 40 41 43 46 46 45

GFSFLT1_700_spd_051.txt.gz
Wind_Speed
11 10 9 7 6 5 5 5 5 4 3 2 2 2 1 2 2 3 4 5 6 5 5 6 7 7 6 5 4 5 5 5 4
10 9 9 9 8 6 6 5 5 5 4 4 4 4 3 4 4 4 5 6 6 6 6 8 8 9 8 7 4 5 5 4 2
10 9 9 8 8 7 7 6 6 5 5 5 4 4 4 3 4 4 5 5 6 7 7 7 7 8 8 7 6 6 7 7 5
9 9 9 9 9 8 7 7 6 6 6 6 6 6 6 6 6 6 7 7 7 8 8 9 9 10 10 10 10 9 10 11 12
5 5 6 7 7 8 8 8 8 7 7 7 7 6 6 6 7 7 7 7 8 10 10 10 9 11 10 10 11 11 11 11 12
1 1 1 2 3 4 5 6 6 6 6 6 6 7 6 7 7 7 7 6 8 10 9 9 9 11 10 10 10 10 10 11 12
6 6 5 4 3 3 3 4 4 5 5 6 6 7 8 8 8 8 8 7 9 10 10 10 9 10 9 9 9 9 10 10 11
10 10 10 10 9 8 7 6 5 5 6 7 8 9 10 11 11 10 10 10 10 11 10 10 9 9 10 9 10 9 10 10 11
13 14 14 14 14 13 12 11 9 8 8 9 10 12 13 14 14 13 13 12 11 12 11 11 10 10 10 10 10 11 11 12 12
16 16 17 17 17 17 16 14 13 12 11 12 13 16 17 17 16 15 14 13 12 12 12 11 10 10 10 10 11 12 13 14 15
19 19 19 20 20 20 19 17 15 14 14 15 17 19 19 18 17 16 15 14 13 13 12 11 11 10 10 11 11 12 13 14 16
21 21 22 22 22 22 20 18 18 17 17 18 20 18 17 16 16 16 15 14 14 13 13 12 12 11 11 11 12 12 14 15 17
22 23 24 24 23 23 22 20 20 20 20 20 19 19 18 17 16 15 15 15 15 14 14 13 13 13 14 14 15 16 17 18 19
26 25 25 25 24 24 24 23 23 22 21 20 20 19 19 17 16 16 16 16 16 16 16 16 16 16 16 17 18 18 19 21 22
28 27 26 26 25 25 25 25 24 23 23 22 21 20 19 18 17 17 17 17 18 18 18 18 19 19 19 20 21 22 23 23 25
31 30 28 28 26 26 28 27 27 25 24 24 23 21 21 19 19 19 19 20 20 21 21 21 22 22 22 22 24 25 25 26 27
34 33 32 29 28 29 29 28 28 27 27 26 24 24 22 20 20 21 20 21 21 21 24 24 26 26 26 26 27 28 29 30 31
35 33 34 33 33 33 32 31 29 29 28 27 28 27 25 22 22 23 23 23 23 25 27 28 29 30 31 31 32 32 33 34 35
39 38 38 36 36 37 36 35 33 30 32 31 30 35 33 28 29 26 27 30 29 30 31 33 32 33 35 36 36 37 37 38 39
48 43 41 40 41 40 39 37 37 35 36 34 36 38 33 33 28 33 31 32 33 34 33 35 34 35 36 39 41 40 41 42 43

GFSFLT1_700_spd_054.txt.gz
Wind_Speed
8 8 8 7 6 5 5 5 4 3 2 2 1 1 1 2 2 3 3 4 4 4 4 5 5 5 4 4 4 4 5 5 5
8 8 8 8 8 7 7 6 5 5 4 3 3 3 3 3 3 4 5 5 6 7 6 7 8 8 8 6 5 4 4 3 3
7 8 8 9 8 8 7 5 5 4 4 3 3 3 3 3 4 4 4 5 5 5 6 6 7 7 7 7 7 8 8 7 5
6 8 9 9 8 8 7 6 5 4 4 4 3 3 3 3 3 4 4 4 6 5 6 6 7 8 9 9 8 10 11 11 12
2 3 4 5 6 6 5 5 4 4 4 3 3 3 2 3 3 4 4 5 7 7 7 8 9 9 10 10 9 9 10 11 11
3 2 1 1 1 2 3 3 4 4 4 4 4 5 5 5 6 6 6 7 9 8 9 9 10 10 9 9 9 9 9 10 10
8 8 7 6 6 5 4 4 4 5 6 7 7 7 8 8 9 9 8 9 10 10 9 9 9 9 8 8 8 8 8 8 9
11 12 12 11 11 11 10 9 8 7 7 8 9 10 10 11 12 13 12 11 11 11 10 9 9 9 8 8 8 8 8 8 8
15 15 15 16 15 15 14 13 13 12 11 11 11 13 14 15 16 16 15 13 12 11 10 9 9 8 8 8 8 9 9 9 10
21 19 19 19 18 18 18 18 16 15 15 14 14 15 17 19 19 18 16 15 13 12 11 10 9 8 8 8 8 8 9 9 10
25 24 22 22 22 21 21 21 20 19 18 17 17 18 20 20 19 18 16 15 14 13 12 10 10 9 8 8 8 9 10 11 12
27 27 26 25 25 24 24 24 23 22 21 19 19 21 20 19 19 18 18 16 15 14 13 12 11 11 10 10 10 10 10 11 13
28 28 28 28 28 27 26 26 25 25 23 22 21 22 20 20 20 19 18 17 16 15 15 15 14 13 13 13 13 13 14 13 14
30 30 31 31 30 29 28 28 27 27 26 25 24 23 22 21 21 20 19 18 18 17 17 17 17 17 17 17 17 17 18 17 17
35 34 34 33 32 31 30 29 29 29 28 27 26 25 24 22 22 21 20 19 19 19 20 20 20 20 21 21 21 21 22 22 22
36 36 35 35 33 32 31 31 32 31 30 30 29 28 26 25 23 22 22 22 21 21 22 22 23 23 24 26 26 26 25 26 26
35 34 35 36 36 36 33 34 33 33 32 31 31 31 30 27 25 23 23 24 24 23 23 23 24 25 27 29 31 30 30 30 31
37 36 37 38 39 39 36 35 36 35 33 33 34 35 34 29 28 26 26 27 26 26 26 28 29 30 31 33 34 34 34 35 36
45 44 43 41 40 39 38 38 37 39 37 36 35 36 36 35 34 32 46 36 31 30 31 32 34 34 36 38 39 37 38 38 39
50 46 44 47 44 41 43 40 40 42 42 41 39 39 38 37 38 41 33 37 38 36 37 35 37 41 40 39 40 39 41 42 42

GFSFLT1_700_spd_057.txt.gz
Wind_Speed
7 7 6 6 5 5 4 3 3 3 3 2 2 1 1 1 1 2 3 4 5 5 4 5 6 5 6 6 8 8 7 5 5
7 6 6 7 7 7 6 5 5 4 4 4 3 2 1 2 2 2 3 4 3 4 5 6 6 6 5 4 3 4 5 7 7
7 7 6 6 6 6 5 5 4 4 3 3 2 2 2 3 3 5 3 4 4 5 6 7 7 7 8 7 8 7 6 6 5
4 5 6 7 7 6 6 5 5 4 4 3 3 4 5 5 5 6 6 7 7 7 8 8 9 9 10 9 9 10 10 10 10
2 3 3 3 3 4 5 5 5 4 4 4 5 5 5 5 6 6 6 7 8 7 8 9 9 9 10 9 9 9 10 10 10
5 5 4 3 3 3 3 3 3 4 4 5 5 6 7 7 8 8 8 9 9 9 9 9 9 9 9 9 8 8 8 9 9
8 9 9 8 8 6 6 6 5 5 5 5 6 8 9 10 11 11 10 11 11 10 10 9 9 8 8 8 8 8 8 8 8
13 12 12 13 13 13 12 11 10 10 10 9 9 9 10 12 14 14 14 14 14 13 11 10 9 9 8 8 8 7 7 7 8
17 16 16 16 17 17 16 16 16 15 14 14 14 13 13 15 17 17 18 17 16 15 13 12 10 9 8 8 7 7 7 7 7
23 21 21 20 19 19 20 19 19 19 18 18 17 17 17 18 20 22 19 17 16 15 14 12 11 10 9 8 8 8 7 7 8
27 27 25 25 24 22 23 23 23 22 22 21 20 19 19 20 22 22 18 17 16 16 15 13 12 11 10 9 9 9 10 9 9
30 30 29 29 28 27 26 26 26 26 25 25 24 22 22 22 22 22 19 18 17 16 15 15 14 13 12 12 11 12 12 12 12
30 31 32 32 31 30 29 29 29 29 28 28 26 25 24 24 23 22 23 20 18 17 17 17 16 16 15 15 14 14 14 14 14
32 32 31 32 32 31 32 32 33 32 31 31 30 28 27 25 25 23 23 22 21 19 18 18 18 18 19 19 18 18 18 18 18
37 37 35 34 35 35 34 34 35 34 34 33 33 31 30 28 27 26 24 23 23 22 19 20 20 21 22 22 22 22 22 23 23
38 39 39 39 39 38 35 35 35 35 36 36 36 34 33 31 30 29 26 25 25 25 24 23 23 24 24 24 24 25 26 27 28
37 38 40 40 40 39 38 37 37 35 37 37 37 39 38 34 32 31 30 28 27 26 24 26 28 26 26 27 28 27 29 30 32
42 41 39 40 41 39 39 38 39 38 37 37 39 40 41 37 35 34 32 32 30 28 29 37 33 30 30 29 32 31 33 34 35
45 45 44 42 43 43 42 44 42 41 42 39 40 41 42 39 37 36 36 36 35 34 44 37 37 35 41 37 35 34 37 37 36
47 50 51 51 50 49 49 50 47 45 44 41 42 41 43 43 41 40 39 40 40 40 39 35 41 41 37 41 40 37 41 38 41

GFSFLT1_700_spd_060.txt.gz
Wind_Speed
10 9 9 8 7 6 6 6 5 5 4 4 4 3 3 3 3 4 4 4 10 7 6 4 6 6 7 9 9 8 7 7 6
9 9 8 7 7 7 7 7 7 7 6 6 6 5 5 5 5 5 5 5 6 6 6 6 6 6 6 6 6 6 5 6 6
8 9 9 8 7 7 7 7 7 6 6 6 5 5 5 5 6 6 6 5 6 6 6 7 7 6 6 6 6 6 7 6 6
6 6 6 7 7 8 8 8 8 7 7 6 6 5 6 6 7 6 7 7 6 7 7 8 8 8 7 7 8 7 7 7 8
4 5 5 5 5 5 5 5 5 5 5 5 5 5 6 7 8 7 8 9 8 9 10 9 9 9 8 8 8 8 7 7 7
4 5 5 4 5 5 5 6 6 6 6 6 6 7 8 9 9 9 10 10 10 10 10 10 9 9 9 8 8 8 7 7 6
7 7 7 8 8 8 8 8 8 7 7 8 8 8 10 11 11 12 12 14 13 13 12 11 11 9 9 8 8 7 7 6 7
13 13 11 11 11 12 13 13 12 12 12 12 12 12 12 12 13 14 15 17 17 16 14 12 12 10 9 9 8 7 7 6 7
18 17 17 16 15 14 16 17 17 17 16 16 16 16 16 16 14 16 19 19 18 16 15 14 13 11 10 9 7 7 7 6 6
23 22 21 21 20 20 20 20 20 20 20 20 20 19 19 19 18 20 20 19 17 15 16 15 14 13 11 10 9 8 7 7 6
25 27 26 26 25 25 26 25 24 24 24 23 23 22 21 21 22 21 21 19 19 17 17 16 15 14 13 12 11 10 9 9 8
27 28 29 28 27 28 28 29 29 28 27 26 26 26 25 24 25 22 22 20 20 19 18 17 16 16 15 14 13 13 12 12 11
27 28 29 30 29 29 30 31 32 31 30 29 29 29 28 26 26 27 23 21 20 20 19 18 18 18 17 17 16 16 16 15 15
31 31 30 31 31 30 29 31 31 31 32 32 33 32 31 30 29 27 28 23 21 22 21 21 20 19 19 19 19 19 19 19 19
33 32 33 34 35 35 32 32 33 33 33 34 35 35 35 33 32 30 28 28 25 23 23 23 22 21 21 22 22 22 22 22 22
36 35 33 35 37 37 37 36 37 36 35 35 34 37 36 37 34 33 31 29 28 28 25 26 25 23 22 23 24 24 23 23 24
41 40 39 37 39 39 40 36 38 39 37 38 35 38 39 37 37 36 34 32 30 31 30 28 28 24 26 29 29 26 25 27 28
44 45 44 42 40 41 41 41 39 40 39 39 38 39 41 38 37 37 37 36 34 32 34 33 33 32 34 35 32 31 29 30 30
42 47 47 46 45 44 44 43 42 43 44 42 41 41 44 43 41 38 37 37 37 36 36 37 37 39 39 36 35 34 34 35 35
37 37 42 48 50 51 49 48 50 50 50 48 46 44 44 45 43 41 39 39 38 40 39 37 40 42 42 39 39 38 36 35 38

GFSFLT1_700_spd_063.txt.gz
Wind_Speed
11 11 11 11 11 10 9 8 7 6 5 4 5 5 6 6 5 5 6 6 7 7 6 7 6 5 6 6 5 6 6 5 6
11 11 11 11 11 10 9 9 8 7 6 6 6 6 6 6 6 6 6 7 7 6 6 6 6 5 5 5 6 5 4 4 3
10 10 10 11 11 10 10 9 9 8 8 8 8 8 8 8 7 7 7 7 7 8 8 7 7 6 6 6 6 6 6 5 5
9 8 7 7 7 8 8 9 9 9 8 8 8 8 8 8 8 8 9 8 8 8 8 8 8 8 7 8 7 7 7 7 7
9 8 7 7 7 8 8 7 7 7 7 7 8 8 8 8 8 9 9 9 10 10 10 10 10 9 8 7 7 7 6 6 6
6 7 7 8 8 8 9 8 8 8 8 8 9 9 10 10 10 10 10 11 11 11 12 12 11 11 10 9 8 7 6 6 6
7 7 6 5 6 8 9 9 9 10 10 10 10 10 10 10 11 12 13 14 15 15 14 12 12 11 10 10 9 8 7 6 5
13 12 11 10 10 9 11 12 13 14 15 15 15 14 14 12 13 14 14 17 18 17 16 14 13 12 12 11 10 9 7 7 6
17 17 17 16 16 15 15 15 16 16 18 19 19 19 18 16 16 15 16 17 17 16 15 14 14 13 13 12 11 9 8 8 7
21 21 21 21 21 21 20 20 20 20 19 20 22 22 22 20 19 18 17 18 18 16 16 16 15 15 13 12 11 11 10 9 8
21 22 23 24 24 25 24 25 24 23 24 24 24 24 25 25 22 21 19 19 19 17 17 16 16 15 15 14 13 12 12 11 10
23 23 22 23 25 27 29 28 28 27 27 27 27 27 27 28 25 23 22 20 20 20 18 18 17 16 16 15 15 14 14 14 13
24 24 25 26 26 26 26 28 29 28 29 28 28 29 30 31 30 27 25 23 22 21 21 20 19 18 17 17 16 16 17 17 17
28 27 27 28 29 30 30 30 29 28 28 29 29 30 31 32 34 32 28 27 25 23 22 23 21 20 19 18 18 18 19 20 20
32 31 30 30 30 30 31 31 32 32 32 33 34 34 34 34 34 35 32 30 28 26 25 25 24 23 22 20 20 20 21 22 23
36 36 35 33 33 33 33 33 34 34 33 36 38 38 36 35 33 34 35 33 31 29 28 27 27 26 25 24 22 22 22 23 24
41 41 40 38 37 37 37 38 37 37 37 37 38 41 39 37 34 34 34 35 35 32 31 29 29 29 29 27 26 24 28 28 26
42 44 43 43 41 41 41 41 41 39 40 41 41 43 43 39 36 35 35 35 36 36 35 34 31 32 33 33 31 35 31 31 29
36 38 39 39 39 41 43 43 44 44 45 44 45 44 44 44 44 39 38 38 37 36 36 36 37 33 39 39 37 39 38 35 34
32 35 37 38 39 39 39 41 43 46 48 51 51 49 50 48 48 47 43 42 40 39 38 40 40 40 43 43 40 42 42 44 40

GFSFLT1_700_spd_066.txt.gz
Wind_Speed
12 11 12 11 11 11 9 9 9 9 9 9 8 7 7 6 6 5 6 7 8 9 8 8 8 8 8 7 6 6 5 4 5
11 11 11 11 12 11 11 11 11 11 10 10 9 10 9 8 9 9 9 9 9 9 8 7 6 6 7 7 7 5 3 3 2
11 9 10 12 12 12 12 12 11 11 11 11 11 11 10 10 10 10 10 10 10 10 9 8 8 8 8 8 8 8 7 7 7
11 10 10 10 10 10 9 9 9 9 9 9 9 9 10 10 10 10 10 10 11 11 10 10 10 9 9 8 8 8 8 8 8
11 11 9 9 9 9 9 9 10 10 10 10 10 10 10 9 10 10 10 11 12 12 12 12 12 11 10 10 9 8 8 8 8
2 4 5 6 7 8 9 9 9 10 12 13 13 13 13 11 12 12 12 12 12 13 14 13 13 12 11 11 10 9 9 8 7
7 6 5 6 6 5 6 7 8 10 11 12 12 13 13 13 13 14 14 14 15 16 14 13 13 13 12 11 11 9 8 8 8
13 11 11 11 11 12 12 10 10 11 13 13 14 14 14 15 15 16 15 17 18 18 16 13 12 11 12 12 11 10 9 8 8
16 16 15 15 16 17 17 17 17 17 17 17 17 17 16 17 17 18 18 18 19 19 18 15 14 13 13 12 12 11 10 9 9
18 18 18 19 19 20 21 22 22 21 21 22 22 22 20 19 19 19 20 20 20 20 19 18 16 15 14 14 13 12 12 11 10
18 19 20 20 20 21 23 24 24 24 24 25 25 25 25 24 23 22 23 23 22 22 20 19 18 17 16 15 15 14 14 14 13
20 20 20 19 20 21 22 23 24 24 26 26 27 27 27 26 25 24 24 25 25 24 22 21 19 18 17 17 17 17 16 16 15
21 21 21 22 23 25 26 26 26 26 26 26 27 27 28 28 27 27 27 26 26 26 25 24 22 21 19 19 19 19 18 18 18
24 25 25 26 27 28 29 30 31 30 30 30 31 30 30 30 30 29 30 29 28 28 28 26 25 23 22 21 21 21 21 21 21
28 29 29 30 31 31 30 30 31 32 31 33 33 34 34 34 34 33 32 31 30 29 30 29 28 27 26 24 23 23 23 23 23
32 33 33 33 35 33 33 33 34 35 34 35 37 36 36 36 35 35 34 31 30 30 30 31 31 31 30 29 27 26 26 26 25
36 37 39 39 38 37 36 37 37 37 36 38 38 42 42 39 36 36 36 34 32 32 32 32 32 33 33 32 32 30 30 29 28
42 42 44 43 43 43 40 38 39 40 40 39 40 44 46 45 41 38 37 37 37 35 35 35 35 35 37 37 40 35 37 35 34
38 38 39 39 38 39 37 36 37 38 41 42 43 43 46 46 49 49 43 40 40 40 39 39 37 36 38 42 45 47 41 42 44
35 35 35 37 37 38 40 40 40 39 39 43 44 44 45 49 49 51 50 50 50 44 42 42 47 40 41 44 45 45 45 46 49

GFSFLT1_700_spd_069.txt.gz
Wind_Speed
14 14 14 15 15 13 13 13 13 12 12 11 11 11 12 12 12 11 11 12 12 13 12 11 12 11 11 10 10 9 7 7 4
14 13 15 15 14 14 13 13 14 14 14 14 14 13 14 13 13 13 12 13 14 13 12 12 12 12 12 11 10 10 9 8 7
16 14 12 11 11 10 10 11 12 12 12 13 13 13 12 13 13 13 13 13 12 12 12 12 12 11 11 11 11 10 10 10 9
15 15 13 12 10 10 10 11 12 12 12 12 13 13 14 14 14 14 14 14 14 14 13 12 12 12 11 11 10 10 10 10 9
10 10 10 10 11 11 13 12 12 12 12 12 13 13 13 14 15 14 15 16 16 16 16 15 13 12 12 11 10 10 10 9 9
3 3 3 4 4 5 7 8 10 12 12 11 11 11 11 12 13 14 15 16 17 18 19 17 15 14 13 12 11 11 10 9 8
10 9 9 8 8 7 7 7 8 8 10 11 12 12 12 12 12 13 14 16 17 18 20 19 17 14 13 13 12 12 10 9 9
15 14 13 13 13 13 12 12 13 14 14 14 13 13 13 14 14 15 15 16 17 18 19 19 17 16 15 14 13 12 12 10 9
18 18 17 17 17 16 15 15 17 18 19 19 19 18 18 18 17 17 17 17 18 18 19 19 19 17 17 16 15 14 13 12 11
19 19 19 18 18 18 17 18 19 20 21 22 22 21 20 21 20 20 20 19 19 19 19 20 20 19 18 17 16 15 14 14 13
18 19 19 19 19 18 18 19 20 21 22 23 23 23 22 23 22 22 22 22 21 21 21 21 21 20 20 19 18 17 16 16 15
18 19 19 18 20 19 20 21 21 22 22 22 23 23 23 24 24 24 25 25 24 24 23 23 23 22 21 21 21 19 18 18 18
18 18 19 20 21 22 22 23 24 25 26 26 26 27 27 27 26 26 26 26 26 26 26 26 25 25 24 22 21 21 21 20 20
23 23 23 25 26 26 26 26 27 27 28 29 30 31 32 31 31 29 28 28 28 28 28 29 28 28 28 26 25 24 23 23 23
27 27 27 29 30 29 29 29 30 31 31 32 34 35 35 34 33 31 31 31 31 29 29 29 30 30 31 30 29 27 26 26 27
29 29 30 31 32 32 32 34 35 34 34 36 37 37 37 37 35 34 33 32 31 31 31 32 31 32 33 34 34 32 31 30 32
34 34 34 35 37 37 37 39 40 41 38 39 38 42 41 40 38 36 35 34 34 33 33 34 34 33 34 37 38 38 37 36 36
39 38 39 40 42 43 43 43 41 41 39 37 38 41 44 43 43 41 39 38 39 38 38 39 39 39 37 36 41 42 42 42 43
39 39 40 40 41 41 40 38 38 38 38 39 38 38 41 44 48 45 43 43 39 41 41 43 47 46 37 39 36 42 47 44 46
34 35 35 36 36 37 37 36 36 37 38 38 38 39 40 41 42 48 44 43 44 42 47 41 46 49 50 53 41 46 48 51 42

GFSFLT1_700_spd_072.txt.gz
Wind_Speed
15 15 15 16 16 16 17 17 16 16 16 16 16 16 16 17 17 16 16 15 15 16 15 14 13 13 12 12 11 11 10 8 6
18 16 15 14 14 14 14 13 13 13 13 14 14 14 15 15 14 14 14 14 15 15 14 14 14 13 13 12 11 11 9 7 6
18 18 17 17 17 16 14 12 12 12 12 12 13 13 13 14 14 14 14 15 15 15 15 15 14 13 13 13 12 11 10 9 9
13 14 14 15 15 17 18 17 15 12 12 12 13 13 14 14 14 15 15 16 16 17 17 17 15 14 13 12 11 10 10 10 9
8 9 9 9 9 9 10 12 14 15 15 13 13 12 13 13 13 14 14 15 16 17 17 17 15 14 14 12 12 12 11 11 9
4 3 3 3 4 4 5 6 6 6 7 8 8 10 10 11 12 12 12 13 14 15 16 17 17 15 13 13 13 12 12 11 10
9 8 8 8 8 8 9 10 11 11 10 9 10 10 11 11 11 12 12 13 14 15 16 17 18 17 15 14 13 13 12 12 12
13 13 12 12 13 13 13 13 14 14 14 14 14 14 14 15 14 14 15 14 14 15 16 17 18 18 17 16 15 14 13 12 12
15 15 15 15 16 16 16 16 16 16 17 17 17 17 17 17 17 17 18 17 17 16 17 17 17 17 17 17 16 16 14 13 13
15 16 16 17 18 18 19 19 19 19 19 19 19 19 20 20 20 20 21 20 20 18 19 19 19 19 19 17 16 16 16 15 15
15 17 17 17 19 19 19 20 20 20 20 20 20 21 21 22 22 22 23 23 22 21 21 20 21 21 22 21 19 18 17 17 17
16 17 17 19 19 20 19 20 21 21 22 21 22 23 24 23 23 23 23 23 24 23 23 23 23 23 24 24 23 22 20 19 20
18 18 18 20 22 23 23 25 25 25 25 24 24 25 25 26 25 26 25 25 26 25 25 25 25 25 25 26 27 25 24 23 22
22 22 22 25 26 27 28 28 28 28 27 27 27 28 28 29 29 27 27 28 28 28 27 27 27 27 26 27 28 29 28 28 27
26 25 26 28 29 30 30 31 31 30 29 31 32 31 31 33 33 31 30 29 28 29 29 29 29 30 30 30 31 31 31 30 31
28 28 28 29 31 31 32 33 33 33 34 38 38 38 37 36 35 35 32 30 31 31 31 31 32 32 34 34 34 34 35 36 35
33 32 33 34 35 35 35 37 38 40 40 41 41 42 39 35 33 33 32 32 32 32 33 35 35 35 35 36 36 35 37 39 43
35 35 36 37 38 38 39 40 42 41 38 36 37 40 41 40 39 37 36 34 33 33 33 35 38 40 41 41 40 40 39 44 43
36 36 37 37 38 38 38 39 40 40 38 35 34 36 39 40 43 42 38 38 36 36 37 37 37 41 40 42 43 43 43 49 52
35 36 36 36 37 37 36 35 36 35 35 34 35 34 35 35 37 41 39 39 39 39 38 38 39 40 39 38 42 42 37 44 40

GFSFLT1_700_spd_075.txt.gz
Wind_Speed
18 17 16 16 16 16 16 15 16 16 16 15 14 14 15 15 15 15 14 14 16 15 15 14 14 14 13 12 11 9 8 6 4
21 20 19 18 16 15 13 13 13 13 13 12 12 12 12 13 13 13 13 13 13 13 13 13 12 12 12 12 11 10 8 6 5
18 18 18 18 19 19 19 18 16 14 13 13 13 14 13 13 13 13 13 13 13 14 14 13 12 12 11 11 11 12 11 11 10
12 12 14 14 14 14 15 15 16 16 15 15 14 14 13 13 12 12 12 13 14 15 15 16 15 13 11 10 10 10 11 12 11
6 7 6 7 7 8 8 8 9 9 8 8 8 8 8 8 9 10 11 12 13 14 15 15 16 15 12 10 10 10 10 10 10
2 1 2 3 3 4 4 5 5 6 6 7 8 8 8 8 8 9 9 10 11 12 13 14 14 14 14 12 11 11 11 11 10
7 7 7 7 8 8 8 8 8 9 9 10 11 12 12 11 11 12 12 11 11 12 13 13 13 13 13 13 12 12 12 12 11
11 11 11 11 11 12 12 12 13 13 13 13 14 15 15 15 15 15 15 15 14 14 14 14 15 15 15 15 14 13 12 12 12
13 13 13 13 13 14 14 14 15 16 17 16 17 17 17 17 17 18 18 18 18 18 17 17 17 17 17 16 17 16 15 14 13
14 14 14 15 15 15 15 16 16 18 19 19 19 19 19 20 20 21 21 21 21 21 20 20 19 19 19 18 18 18 18 17 16
15 15 15 16 17 16 17 18 18 19 20 21 21 21 21 22 22 22 22 22 22 22 23 22 21 21 21 20 20 20 20 18 18
16 16 16 18 19 18 18 19 19 20 22 23 24 24 23 22 23 23 23 24 24 24 24 25 24 24 24 24 23 23 24 23 22
18 18 18 20 20 21 22 23 24 25 27 27 27 27 26 25 25 25 24 24 25 25 26 26 27 27 26 26 27 27 26 26 25
20 20 21 23 24 24 26 27 28 29 29 30 29 29 29 29 30 28 28 27 26 26 27 27 28 29 28 28 28 29 31 29 28
24 23 24 26 26 28 29 31 32 32 32 33 33 32 33 33 34 33 32 29 27 28 30 31 31 31 31 31 31 31 32 33 32
27 27 27 28 29 30 32 33 34 34 35 37 37 38 39 38 33 32 33 30 29 30 30 30 31 32 33 33 33 34 35 35 36
30 31 32 32 33 34 35 36 37 38 37 40 42 42 38 34 30 29 28 29 31 30 31 32 33 34 36 37 38 38 38 37 31
33 34 34 34 35 35 35 35 37 38 37 37 39 40 39 35 33 31 31 29 27 27 29 30 32 34 38 36 38 38 40 36 30
34 34 35 34 36 36 35 35 35 37 36 36 33 34 35 37 38 35 31 28 28 30 31 31 33 34 32 35 36 39 39 36 40
34 34 34 34 34 34 33 33 34 34 35 35 33 32 33 34 36 37 37 34 35 34 32 31 31 31 32 31 32 34 35 34 34

GFSFLT1_700_spd_078.txt.gz
Wind_Speed
16 16 16 15 15 13 13 12 12 11 11 11 11 11 11 10 11 10 10 10 11 11 11 11 11 10 10 9 9 9 8 7 4
19 19 19 18 16 15 14 14 12 12 13 13 13 12 12 12 12 12 12 12 12 13 13 12 11 10 9 9 8 8 8 8 8
16 16 17 17 17 18 17 17 15 15 14 14 14 13 13 12 12 11 11 11 12 12 13 13 13 11 10 9 8 8 8 8 8
11 12 13 13 13 12 12 11 10 11 11 10 10 10 10 10 10 9 9 9 10 11 12 13 13 13 12 10 9 9 9 10 9
5 5 5 5 4 5 4 4 4 5 5 6 7 7 7 8 8 8 8 9 9 10 10 11 11 12 12 11 11 11 11 11 11
2 2 2 2 3 3 3 4 4 4 5 7 8 10 10 11 12 12 11 11 11 11 11 12 12 13 13 13 12 12 12 13 12
7 7 8 8 8 8 9 8 8 9 9 10 11 12 13 14 15 16 16 15 14 14 14 14 14 14 14 13 13 13 13 13 12
12 12 12 12 11 12 12 12 12 12 13 13 14 15 16 18 18 19 19 18 18 17 17 17 17 16 16 15 15 14 14 13 13
14 14 14 14 14 14 15 15 15 15 15 15 16 18 19 20 20 21 21 21 21 21 20 20 20 19 19 18 18 17 17 17 16
15 15 15 15 16 17 17 17 17 17 17 17 18 19 21 21 22 23 23 23 23 23 23 22 22 22 22 22 21 20 20 20 20
16 16 17 18 18 18 18 18 19 19 18 19 20 21 23 23 24 24 24 25 25 25 25 25 25 24 24 24 23 23 24 23 23
16 16 17 19 19 19 19 20 20 20 21 22 24 25 25 25 25 25 25 26 27 27 27 27 27 27 27 27 27 26 25 26 26
18 19 20 20 20 20 21 22 23 23 25 26 28 28 29 28 28 28 28 29 29 29 29 29 30 29 29 29 29 30 28 27 28
22 22 22 22 22 23 24 25 26 27 29 29 31 31 31 31 30 32 32 33 33 33 32 32 32 32 32 33 33 33 34 31 29
26 25 25 25 26 26 27 29 30 30 32 33 34 34 34 34 36 36 37 37 35 33 32 32 33 33 34 35 35 34 33 33 34
28 28 28 28 28 29 31 33 34 34 36 38 38 38 37 38 39 37 33 30 30 30 31 32 33 32 33 35 35 36 36 35 36
30 31 31 33 33 33 34 35 36 36 36 38 40 40 37 37 34 33 28 26 27 27 27 30 32 34 35 35 35 36 38 39 36
33 33 34 35 36 35 35 36 36 37 36 35 37 39 38 35 33 28 25 27 28 25 24 24 27 30 32 33 35 37 36 38 36
32 33 34 35 35 35 35 35 36 37 35 35 33 33 34 34 35 33 28 28 27 27 27 29 30 29 29 30 32 34 36 37 36
35 35 35 34 34 34 33 33 33 34 33 32 33 32 32 33 34 36 33 30 28 28 28 28 26 27 29 30 32 33 36 36 36

GFSFLT1_700_spd_081.txt.gz
Wind_Speed
15 14 13 14 13 13 12 12 11 11 11 11 10 11 11 10 12 12 11 11 12 12 12 11 10 10 9 9 9 8 7 6 6
15 15 15 14 15 14 14 13 12 12 13 13 12 13 13 12 13 12 12 12 13 13 13 13 13 12 11 10 9 9 9 9 9
13 14 14 15 15 15 15 14 14 13 13 12 12 12 12 12 11 11 11 11 12 12 12 12 13 13 12 12 12 11 11 10 10
11 10 11 11 10 10 9 9 9 8 8 8 9 9 9 10 10 10 10 11 11 12 12 13 13 13 13 13 12 11 11 11 11
4 4 4 4 4 3 3 3 4 4 6 7 8 9 10 10 11 12 12 13 13 13 13 13 13 13 13 13 13 13 13 13 12
2 2 3 3 3 4 4 5 6 7 8 9 10 11 12 13 14 15 15 16 16 16 16 16 15 15 15 14 14 14 14 14 14
8 8 9 8 9 9 9 10 10 10 11 12 13 14 15 16 17 18 19 19 19 19 19 19 18 18 18 18 17 16 16 16 16
13 13 13 13 13 13 13 13 13 13 14 14 15 16 17 18 19 20 20 21 21 21 21 21 21 20 20 20 20 19 18 18 17
16 16 16 15 15 16 15 15 15 15 16 16 17 17 18 19 20 22 22 22 23 23 22 22 23 23 23 22 22 22 21 21 20
16 16 17 17 18 17 17 17 18 18 18 18 18 19 19 20 21 22 23 24 24 24 25 25 24 25 24 24 24 24 24 23 23
17 16 17 18 18 18 18 19 19 19 19 19 20 21 22 22 23 24 25 24 25 26 27 27 27 27 27 26 27 26 26 26 26
16 16 17 18 18 19 19 20 20 20 21 22 23 24 25 26 26 27 27 28 27 29 29 29 30 30 30 30 29 28 25 26 27
18 19 20 21 21 20 20 21 22 23 24 25 27 28 29 30 30 30 30 31 32 34 33 34 34 33 33 32 32 31 29 28 27
22 23 23 24 24 23 24 24 25 26 27 29 30 31 33 33 33 33 34 36 37 38 37 33 32 33 33 33 33 32 33 32 30
26 26 26 27 28 27 28 28 28 29 30 33 34 35 36 36 35 35 36 38 39 34 32 31 29 30 32 33 33 33 32 31 31
27 28 28 29 29 29 30 31 31 32 34 35 34 35 35 36 35 35 34 33 32 29 28 29 29 30 30 31 33 34 34 33 32
28 29 30 31 32 32 33 34 36 36 34 36 36 38 35 34 37 32 30 29 26 28 26 25 25 26 27 29 28 31 34 33 32
31 31 33 34 34 34 34 36 37 37 35 34 35 34 35 35 34 32 28 29 28 28 26 25 27 28 30 31 31 31 31 32 33
32 32 33 34 35 36 36 36 36 37 36 35 33 32 34 34 35 34 31 28 27 27 26 27 29 29 30 30 28 28 30 32 33
33 34 35 36 36 35 34 34 34 33 33 32 32 31 32 33 35 37 33 31 29 26 27 27 29 29 29 27 28 29 31 30 32

GFSFLT1_700_spd_084.txt.gz
Wind_Speed
15 15 14 13 12 11 11 11 11 12 12 12 13 13 13 12 15 15 14 15 15 15 14 14 14 13 11 11 11 10 9 9 9
15 15 14 13 13 13 13 14 14 14 14 14 14 14 14 14 15 15 16 16 16 16 15 15 14 14 14 13 12 11 11 10 10
15 15 14 14 14 14 14 14 14 13 12 12 12 12 13 13 14 14 14 14 15 15 16 16 16 16 15 14 14 13 13 12 11
12 11 11 10 10 10 10 10 10 9 9 9 10 11 12 12 13 12 13 14 14 15 15 16 16 16 16 16 15 15 15 14 14
6 6 5 4 3 4 4 5 6 7 7 9 10 11 12 13 13 14 15 15 15 16 16 17 17 17 17 17 17 16 16 16 16
0 0 2 3 4 5 6 7 7 9 10 11 12 12 14 15 16 15 16 17 18 18 18 18 19 19 19 18 18 17 17 17 16
5 6 7 8 8 9 10 10 10 11 12 13 13 14 15 16 17 17 18 18 18 19 20 20 20 20 20 20 20 19 19 19 18
9 10 11 12 12 12 12 13 13 13 14 14 14 15 16 17 18 17 18 19 19 19 20 21 21 22 22 21 21 21 20 20 20
13 13 14 14 14 15 14 14 14 14 15 16 16 17 16 17 18 19 19 20 21 21 21 21 23 23 23 23 23 23 22 22 21
14 15 14 14 15 15 15 16 17 16 16 16 16 17 18 18 20 21 21 22 22 23 23 24 24 24 25 25 24 24 24 23 23
14 14 14 14 14 15 16 17 17 18 17 18 18 19 20 21 23 24 24 24 24 26 26 28 29 30 28 27 26 24 23 24 24
14 14 14 15 16 17 18 18 18 19 20 20 21 22 23 25 26 27 28 27 27 28 30 32 33 33 31 28 28 26 23 23 24
14 16 17 18 19 20 21 21 21 22 23 24 25 25 26 28 28 29 31 32 32 31 32 32 32 30 28 27 27 26 27 24 24
18 19 20 21 22 23 23 24 24 25 26 27 28 29 29 32 32 32 31 32 34 35 34 28 28 26 26 27 26 25 28 28 24
20 22 23 24 24 24 25 26 27 27 29 29 31 32 34 33 33 30 30 32 32 32 29 29 26 25 26 27 28 28 27 24 25
23 24 24 25 25 26 27 29 30 31 31 33 34 34 33 32 32 31 29 27 26 27 26 27 27 27 27 26 26 26 26 26 25
24 25 26 27 28 29 30 32 33 34 33 35 37 38 34 30 31 30 28 28 28 28 28 27 28 27 27 28 27 27 28 29 29
27 28 29 30 31 31 32 33 35 36 35 35 35 36 36 33 29 30 29 30 29 28 30 28 30 26 25 29 29 28 26 25 27
29 30 31 31 32 33 34 35 36 36 35 33 32 33 33 32 31 30 28 30 28 29 31 28 28 27 27 26 26 25 25 24 26
29 30 32 33 34 35 35 35 34 34 34 32 30 30 31 32 33 34 30 28 30 30 28 26 26 30 26 27 26 24 24 27 27

GFSFLT1_700_spd_087.txt.gz
Wind_Speed
15 14 13 13 13 12 13 13 13 13 14 15 15 17 18 17 19 19 18 18 18 18 18 18 17 16 15 15 14 14 12 12 11
15 15 15 16 15 15 15 15 15 15 15 15 15 16 16 16 16 16 16 16 16 16 16 17 17 17 17 17 16 15 14 13 13
16 16 16 16 15 15 14 13 13 12 13 12 13 14 13 14 14 14 14 14 14 14 15 15 16 16 16 17 17 16 15 15 14
14 14 12 12 11 10 9 9 9 10 10 11 12 12 13 13 13 13 14 14 14 14 15 15 15 16 16 16 16 16 16 16 15
10 9 8 7 6 6 6 6 7 8 9 11 11 12 13 13 13 14 14 14 15 15 15 15 16 16 16 16 16 16 16 16 16
4 4 3 4 5 6 7 8 9 9 10 11 12 13 13 13 12 13 14 15 15 16 16 16 16 17 17 17 17 16 16 16 16
0 2 3 5 7 8 9 10 10 11 11 12 13 13 14 14 13 14 15 15 16 16 16 16 17 18 18 18 18 17 17 17 16
5 6 6 7 9 10 10 11 11 12 12 12 13 13 14 14 14 14 15 16 17 17 17 17 18 19 20 19 19 19 18 17 17
7 8 9 9 10 10 11 12 12 12 13 13 13 14 14 15 15 16 17 18 19 19 19 19 20 22 22 22 21 20 19 18 18
8 9 9 9 9 9 10 11 12 12 13 13 13 14 15 16 17 18 19 20 21 22 22 23 23 24 25 25 23 21 20 19 18
10 10 9 9 9 10 12 13 14 14 14 15 16 16 17 19 21 22 22 22 23 24 25 26 27 27 26 25 22 20 18 20 19
12 10 10 11 11 13 14 15 15 16 17 18 20 20 20 21 23 26 26 26 26 26 26 27 27 27 23 21 20 20 20 20 22
13 12 12 13 14 16 17 17 18 19 20 21 22 22 22 22 25 28 28 29 27 27 28 26 23 22 18 17 17 18 22 22 20
15 14 15 17 18 18 18 20 20 21 22 23 24 25 26 27 29 30 30 30 30 29 27 26 24 23 21 21 20 19 20 22 24
16 17 18 20 21 21 21 22 23 24 26 27 28 28 28 30 30 29 28 30 28 27 24 25 23 24 24 23 22 21 19 19 21
18 19 20 21 21 23 24 25 27 28 29 31 31 31 30 30 28 28 29 30 28 25 25 26 26 26 25 23 22 22 23 22 23
20 21 22 23 24 25 27 28 29 30 29 33 35 36 32 30 29 28 27 27 26 29 29 30 29 26 24 24 24 23 24 24 23
23 24 25 26 27 28 29 30 31 33 32 33 36 36 34 31 29 28 27 26 28 31 32 29 29 26 24 26 26 26 24 22 21
27 27 28 28 29 29 30 32 33 35 34 33 32 33 32 32 33 26 27 29 30 31 30 31 28 28 26 25 24 23 22 20 21
27 28 29 30 31 32 32 33 34 35 34 33 31 30 30 30 32 33 27 29 32 29 29 31 31 28 27 26 22 22 21 21 22

GFSFLT1_700_spd_090.txt.gz
Wind_Speed
15 14 14 14 14 14 14 15 16 17 18 18 17 16 15 15 16 15 16 15 15 15 16 16 16 16 17 17 16 15 14 14 13
16 16 16 16 16 17 16 16 16 15 15 14 15 14 14 14 14 13 14 13 13 13 14 14 14 14 15 15 15 15 15 15 15
17 17 17 16 16 15 15 14 13 13 13 12 12 11 11 11 12 12 12 12 12 12 12 13 13 13 14 14 14 14 14 14 14
15 14 14 13 12 11 10 10 10 10 10 11 11 10 10 10 11 11 11 11 11 12 12 12 13 13 13 13 14 14 14 13 13
12 11 9 8 7 6 6 7 8 9 9 10 10 11 11 10 11 11 11 11 12 12 12 13 13 13 14 14 14 14 14 13 13
8 7 5 4 4 5 5 6 8 9 10 11 11 11 12 11 10 10 11 12 13 13 13 13 13 14 14 15 15 14 14 14 13
3 2 2 3 4 6 6 7 8 9 10 11 11 12 13 11 10 11 12 13 13 15 15 15 15 15 16 17 16 16 15 14 13
1 2 3 4 5 6 7 7 8 9 11 12 12 13 13 12 11 12 13 15 16 16 16 17 17 18 18 19 19 19 17 16 14
5 5 5 5 6 6 6 7 8 10 11 12 12 12 12 13 13 14 15 17 18 19 20 20 20 20 21 21 21 21 18 17 16
8 8 7 6 6 6 6 7 8 10 11 11 12 13 14 14 16 17 17 19 21 22 23 24 23 22 22 22 20 17 17 17 16
10 10 9 8 7 7 8 9 10 11 12 13 14 15 16 17 18 18 19 21 22 23 25 24 23 24 22 20 17 18 18 18 16
12 12 10 10 10 10 11 12 12 13 14 15 16 17 18 18 21 21 23 24 25 25 23 25 24 20 15 15 16 16 20 20 19
15 14 13 12 13 13 14 15 15 16 16 17 19 20 21 20 21 24 27 27 27 26 25 26 23 16 15 14 14 15 18 20 21
17 16 14 14 15 16 17 17 18 18 20 21 22 23 24 25 24 25 28 29 28 27 24 23 24 22 19 17 17 17 18 19 19
19 17 16 17 18 18 18 19 21 22 23 24 25 26 25 26 27 27 28 29 29 28 24 24 23 21 20 19 20 20 20 21 20
18 16 17 19 20 20 21 22 24 25 26 28 28 28 29 27 27 27 27 28 28 29 28 25 24 27 23 22 22 22 22 21 22
17 18 18 19 21 23 24 26 27 27 28 30 33 34 31 30 28 25 24 24 26 26 27 23 30 30 26 26 25 23 22 22 23
22 19 19 23 24 25 27 28 29 30 29 31 34 36 35 32 30 27 27 26 27 28 29 29 30 32 26 24 25 24 24 23 21
31 23 27 25 26 27 28 30 31 32 31 31 33 33 34 32 33 28 27 30 30 30 30 30 29 30 29 25 23 22 21 19 20
27 24 25 26 27 28 29 31 32 34 34 34 32 32 33 31 32 33 27 31 32 31 31 32 30 26 34 29 20 20 19 19 18

GFSFLT1_700_spd_093.txt.gz
Wind_Speed
15 13 13 15 16 17 18 18 18 17 16 16 14 14 14 14 13 13 13 13 13 13 13 13 13 14 14 14 14 14 14 15 15
16 16 17 18 18 18 17 16 16 16 15 14 13 12 12 12 12 11 12 12 12 12 12 12 12 12 12 12 12 13 13 13 13
18 18 17 17 16 16 14 14 12 12 11 11 10 10 10 10 10 10 11 11 11 11 11 12 12 12 12 13 12 12 12 12 12
17 16 15 14 12 11 10 10 9 9 9 9 9 9 9 10 10 10 10 10 10 11 11 12 12 13 14 14 13 12 11 11 11
15 13 11 9 8 7 7 6 6 7 7 8 8 8 8 10 10 10 10 10 10 11 12 12 12 13 14 15 14 14 12 11 11
11 10 8 5 4 3 4 5 6 7 8 9 9 9 9 9 10 10 10 11 12 13 14 14 14 14 15 16 16 16 15 14 12
7 5 2 1 1 2 3 4 6 7 8 9 10 10 10 10 10 10 11 13 14 15 16 16 17 17 18 18 19 19 17 15 14
2 1 1 2 4 4 4 5 6 7 9 10 10 11 11 11 11 12 13 15 16 17 18 18 19 19 20 21 20 20 19 15 13
4 5 5 5 6 6 6 5 6 7 9 10 10 11 12 12 12 14 15 17 19 20 21 20 21 22 20 19 21 22 17 14 13
7 8 7 6 7 6 6 6 7 9 10 10 11 12 13 14 15 16 17 18 21 22 22 23 22 18 21 19 18 18 18 16 15
10 11 10 9 7 7 7 8 10 11 11 12 13 14 15 15 17 17 18 20 23 24 23 23 22 21 18 16 15 17 19 19 17
14 14 13 12 10 9 10 10 11 12 12 13 14 15 16 17 19 20 21 22 24 25 23 23 20 14 15 16 19 19 18 17 19
18 17 15 14 13 12 13 13 13 14 14 16 17 18 20 21 21 21 23 25 25 25 23 23 22 15 16 15 16 18 20 20 20
21 20 19 16 15 15 15 16 16 16 18 19 20 21 22 21 22 24 25 26 25 25 25 24 22 20 19 18 19 20 20 21 21
23 23 21 19 17 16 17 17 18 19 21 22 23 23 23 24 25 27 26 26 25 25 25 25 21 21 21 20 22 23 22 21 21
26 25 23 19 18 18 18 18 20 22 24 26 25 25 25 26 26 26 25 25 25 25 24 22 25 20 25 25 24 25 24 23 23
28 25 21 20 19 19 19 20 22 24 26 29 31 31 27 28 28 26 24 25 25 24 26 25 26 27 28 29 25 22 22 23 24
23 21 18 16 17 20 21 22 24 25 26 29 32 34 33 32 31 30 28 27 28 26 26 26 28 30 28 29 25 19 19 22 23
24 25 21 24 27 25 23 24 25 25 26 29 32 34 35 34 34 32 32 31 30 29 29 28 29 30 30 27 27 23 20 18 17
27 19 25 23 22 29 27 26 25 26 26 29 32 33 34 33 34 33 31 32 33 32 31 30 30 31 29 30 29 23 19 19 16

GFSFLT1_700_spd_096.txt.gz
Wind_Speed
15 14 15 16 18 20 20 19 17 16 16 15 14 14 13 13 12 12 11 11 11 12 12 13 13 12 12 12 11 11 11 11 12
16 17 18 19 19 18 18 17 16 14 13 12 12 12 11 11 10 10 10 10 12 12 12 12 12 12 12 11 11 11 11 11 10
19 20 19 18 17 16 15 13 12 11 10 10 10 10 10 10 9 9 10 11 12 12 12 13 13 13 13 13 13 12 12 11 10
19 18 17 15 13 12 10 9 8 8 7 7 7 7 7 8 9 9 10 11 11 12 12 13 13 13 14 14 14 14 13 12 11
16 15 13 11 9 8 6 5 5 4 4 5 5 5 6 8 8 9 9 10 11 12 13 14 14 14 15 15 15 16 15 14 12
13 11 9 7 4 3 2 2 2 3 4 4 5 5 5 7 8 8 9 11 12 13 14 15 16 16 17 16 16 16 16 16 15
9 7 4 2 1 2 3 3 4 4 5 6 5 6 6 7 8 10 11 12 14 15 16 17 18 18 18 18 18 17 17 16 13
6 4 1 2 2 4 5 6 6 7 7 8 8 8 8 9 10 11 13 14 15 16 18 19 19 20 19 17 18 18 16 13 12
6 4 4 4 5 5 5 6 6 7 7 8 9 9 9 10 12 13 15 16 17 18 19 20 19 17 17 21 18 16 14 13 12
8 7 7 7 7 6 6 6 6 7 8 9 9 10 11 12 13 15 16 17 18 20 20 21 19 15 12 15 17 17 17 16 15
11 10 9 10 9 8 7 8 8 9 10 10 11 12 13 14 15 16 18 19 21 22 22 21 16 13 13 16 19 17 18 19 18
14 13 13 13 12 10 10 10 11 11 12 12 12 13 14 16 17 18 19 21 22 22 22 20 17 14 15 14 15 15 15 16 15
18 17 17 17 16 14 13 13 13 13 14 14 15 16 17 18 18 18 20 21 22 22 21 21 19 18 16 10 16 20 20 21 23
23 22 21 20 19 17 16 15 15 15 15 16 17 18 18 18 19 21 22 23 22 21 21 21 21 20 16 17 20 20 20 22 21
27 26 24 23 22 20 18 17 16 16 17 18 17 18 18 20 21 23 24 23 23 21 21 22 22 22 19 18 20 23 23 23 22
32 30 28 26 25 22 19 18 17 18 18 20 19 19 20 22 23 24 25 24 23 22 22 22 22 21 21 20 24 25 24 21 20
33 31 28 28 26 21 17 16 17 18 20 21 22 22 20 22 24 25 26 24 23 23 24 24 24 21 25 23 24 25 16 22 22
30 30 28 26 23 23 15 15 17 19 20 21 23 26 27 29 28 28 27 27 25 25 25 25 24 24 25 26 25 25 19 21 19
29 26 25 27 31 33 27 21 19 21 21 23 24 26 27 29 31 29 29 29 29 28 27 27 25 25 26 27 26 23 23 22 20
26 29 28 19 21 24 22 33 18 23 23 25 25 25 29 30 31 29 29 31 30 30 29 28 28 27 29 28 25 21 26 20 19

GFSFLT1_700_spd_099.txt.gz
Wind_Speed
17 15 15 17 17 18 19 17 16 15 15 13 13 12 11 12 11 12 12 11 11 11 12 12 12 12 12 12 11 11 10 10 10
17 18 19 20 19 18 17 16 15 13 12 11 10 10 9 10 9 10 10 10 10 11 11 12 12 12 13 13 12 12 11 11 10
20 21 21 20 18 17 15 13 12 11 9 8 7 7 7 7 8 8 8 9 10 10 11 11 11 12 12 12 13 12 12 11 11
21 20 19 17 15 13 12 10 8 7 6 5 5 5 5 6 6 7 7 9 10 11 12 12 13 13 13 14 14 13 12 11 11
20 17 15 13 11 9 7 6 5 4 3 3 3 4 4 4 5 6 7 8 9 11 12 14 14 14 15 15 15 14 13 11 11
17 15 12 9 7 4 3 2 2 2 1 2 2 3 5 5 5 6 8 9 11 12 13 14 15 16 16 16 15 15 13 13 12
15 12 9 6 4 2 1 1 1 2 2 3 4 3 4 5 5 6 8 10 11 12 14 15 16 16 16 15 16 15 14 11 10
12 9 6 4 2 2 2 2 3 3 3 3 4 4 5 6 8 8 10 11 12 14 15 16 17 17 15 15 14 14 12 11 9
11 8 6 3 3 3 3 3 3 4 5 5 5 5 6 8 9 10 11 12 13 15 16 16 16 13 13 15 15 16 16 14 12
12 10 8 6 6 5 5 4 5 5 6 7 7 7 8 9 11 13 14 15 16 17 18 18 16 13 14 15 14 17 16 17 16
12 11 10 10 9 8 8 7 7 7 7 8 9 10 10 11 13 14 15 16 17 18 19 18 15 15 15 16 16 13 13 10 12
14 13 12 12 11 12 11 10 9 9 10 10 11 11 12 13 14 15 16 16 19 19 20 19 16 14 16 18 16 16 17 20 22
16 16 16 16 15 16 15 13 12 12 12 13 13 13 14 14 14 16 16 17 18 19 19 18 17 16 16 18 13 18 21 22 23
20 21 21 20 19 20 20 17 16 15 15 14 14 15 14 13 14 16 18 19 19 19 20 19 18 17 17 13 12 21 18 21 22
23 25 26 26 24 24 24 22 20 18 17 15 13 14 14 14 15 17 18 18 18 17 17 18 19 19 19 18 21 19 19 22 22
23 27 29 29 28 27 28 25 21 20 17 15 15 15 14 16 17 18 19 19 18 19 18 20 21 21 21 21 19 21 21 21 21
27 27 30 30 30 30 28 24 22 18 17 16 16 16 15 16 18 19 19 20 19 20 20 21 22 23 24 22 25 23 23 20 19
27 26 27 30 30 28 26 22 16 15 16 16 17 18 18 20 18 21 23 23 22 21 22 22 23 24 25 25 24 24 26 24 19
33 32 32 32 30 27 30 27 28 23 19 17 18 19 20 22 24 25 27 27 25 24 24 24 25 25 26 26 26 26 25 22 21
37 42 34 32 31 33 36 36 28 38 31 17 19 20 21 22 27 28 31 31 29 28 27 26 27 27 27 27 27 25 23 23 22

GFSFLT1_700_spd_102.txt.gz
Wind_Speed
16 16 15 14 16 17 18 17 15 14 13 12 11 10 10 10 10 9 9 10 10 10 11 11 11 11 11 11 11 11 11 10 10
17 16 16 17 18 18 16 15 13 12 11 10 9 8 8 8 8 7 8 9 9 10 10 10 10 11 11 11 11 12 11 10 9
17 17 18 18 17 16 14 12 10 9 7 6 6 6 6 6 6 6 7 8 8 8 9 10 10 11 11 12 12 12 12 11 10
20 20 19 17 16 14 12 10 7 6 5 3 3 3 3 3 3 4 5 6 6 8 9 10 11 12 12 12 12 12 12 11 11
22 21 18 16 14 11 10 7 6 4 2 1 0 1 2 2 3 3 4 5 6 8 10 11 12 12 13 13 13 13 11 12 11
23 20 17 15 12 10 8 6 4 3 2 2 2 2 2 2 3 3 4 6 7 9 10 11 13 14 14 14 13 14 12 11 9
22 19 16 13 10 8 6 5 4 4 3 3 3 3 3 3 4 4 5 7 8 9 11 13 14 14 14 13 13 12 11 10 10
21 17 14 11 9 7 6 6 5 5 4 4 4 3 4 4 5 6 7 8 10 12 13 14 15 15 14 13 15 14 14 13 12
18 15 13 10 8 7 6 6 5 5 4 5 4 5 5 6 7 8 9 11 12 13 14 15 16 12 13 15 17 17 17 15 14
17 15 12 11 9 8 7 6 6 5 5 5 6 6 7 8 9 10 11 13 14 14 15 16 17 16 16 15 16 15 18 16 15
16 14 12 12 11 10 9 8 8 7 7 7 8 9 9 10 11 13 13 13 14 15 17 16 16 16 16 16 15 18 16 16 16
18 16 14 13 12 12 12 11 11 10 10 10 10 11 12 12 13 13 14 14 15 16 16 16 15 15 16 17 18 19 18 19 22
19 18 17 16 15 15 15 15 15 14 14 13 12 13 13 13 14 14 14 15 15 16 15 15 15 15 16 16 16 17 18 22 23
21 21 20 20 18 19 18 19 20 19 18 16 14 14 14 14 14 15 15 16 16 16 16 16 16 16 17 18 18 21 22 21 24
22 22 22 23 23 24 23 24 24 24 21 19 17 17 16 15 14 14 15 16 16 16 17 17 16 18 18 20 21 23 24 21 22
22 25 27 29 27 26 28 28 27 27 24 21 20 20 18 15 13 14 16 15 16 17 17 18 18 19 20 22 24 24 24 25 22
24 28 29 28 26 28 29 30 29 28 26 22 20 19 18 17 15 13 13 15 17 18 18 19 20 20 21 22 25 25 27 28 25
27 25 25 27 27 27 30 30 28 27 24 20 18 18 19 18 17 15 15 18 20 21 22 23 23 23 24 25 26 26 25 27 27
33 29 24 27 31 39 32 29 29 27 24 21 20 17 18 19 20 19 19 21 23 25 25 25 26 27 27 27 27 28 28 27 26
36 40 32 30 32 32 32 39 35 40 42 38 26 21 20 20 22 24 28 26 27 29 29 30 30 30 30 31 30 31 29 29 25

GFSFLT1_700_spd_105.txt.gz
Wind_Speed
15 14 13 12 11 12 13 14 14 13 12 11 10 9 8 8 9 9 9 8 8 8 9 9 10 10 10 11 11 11 11 10 10
17 15 13 12 13 15 14 13 12 11 10 9 9 8 7 6 7 7 6 6 7 8 8 8 9 9 11 11 11 11 11 11 10
18 16 15 15 16 15 13 11 10 9 8 7 6 6 6 5 5 5 5 6 6 7 8 9 10 11 11 12 12 13 13 12 11
19 18 19 18 16 14 12 10 8 6 5 5 4 4 3 3 3 2 3 4 5 6 8 9 11 12 13 13 13 13 13 12 12
21 22 21 18 16 13 11 9 7 5 4 3 2 1 1 0 1 1 3 4 6 7 9 11 13 13 13 13 12 13 12 12 10
24 23 21 18 15 13 10 8 7 5 4 3 2 2 2 1 2 2 4 5 6 8 10 11 13 15 15 13 12 12 12 11 11
25 23 20 17 14 12 10 9 7 6 5 4 3 3 3 3 3 3 5 7 8 10 12 13 14 15 15 13 12 13 13 13 12
25 22 19 16 14 12 10 9 8 7 6 5 4 4 4 4 5 5 6 8 9 11 12 13 14 16 14 13 15 15 15 14 14
24 21 18 15 12 10 9 8 8 8 7 6 6 6 6 6 7 7 9 10 11 12 13 14 14 15 15 15 15 16 17 16 15
23 20 17 14 12 10 8 8 8 7 7 7 7 6 6 6 7 9 10 11 12 13 14 15 16 15 14 15 14 15 16 17 17
23 20 18 15 13 11 10 9 9 8 8 8 7 7 7 8 10 11 12 12 13 14 14 15 14 15 14 16 16 16 19 16 18
23 20 18 16 14 13 12 12 11 11 11 11 10 9 10 10 12 13 14 14 14 16 16 16 16 14 16 16 16 16 16 17 18
23 20 18 17 16 15 14 14 15 15 15 15 14 13 12 13 14 15 14 15 15 15 14 16 16 15 15 15 13 18 19 21 22
24 22 20 20 18 18 18 18 18 18 19 18 18 17 16 15 15 15 16 15 15 15 17 17 17 17 16 17 18 19 22 24 24
25 23 21 22 21 21 22 21 22 21 23 23 22 20 19 17 16 16 16 15 15 15 16 18 16 18 18 19 20 22 23 25 24
26 24 24 24 24 24 25 25 25 25 25 26 25 24 23 20 18 17 16 13 13 14 16 18 17 19 20 21 22 23 25 27 24
26 26 24 21 23 24 25 26 27 27 27 26 26 24 23 23 19 18 16 14 13 14 15 18 20 21 23 24 25 26 27 28 28
29 30 24 24 22 24 24 25 27 28 28 26 28 24 21 22 22 18 18 16 16 17 18 19 21 23 25 27 29 29 29 29 29
31 32 32 28 27 27 26 30 36 30 30 30 28 27 23 19 18 20 20 18 21 21 23 23 23 25 26 28 30 31 31 30 31
39 39 39 40 36 29 31 25 26 32 34 35 32 30 36 35 23 35 30 27 23 24 27 27 27 27 29 31 32 33 33 31 29

GFSFLT1_700_spd_108.txt.gz
Wind_Speed
13 13 13 11 9 9 9 11 11 10 10 11 10 10 9 8 8 8 8 7 7 7 8 9 10 11 11 11 12 11 12 11 10
14 13 13 12 12 12 13 12 11 10 9 8 8 8 7 6 7 6 6 6 6 7 8 9 10 11 12 12 11 11 12 11 11
15 15 14 14 15 15 13 12 11 9 8 7 6 5 5 3 5 5 4 4 5 7 9 10 11 12 12 12 12 12 12 11 11
18 16 16 17 17 16 14 12 10 9 7 5 4 3 3 2 3 2 3 5 6 8 9 11 12 12 13 12 12 12 12 11 11
20 18 19 19 18 16 13 11 9 7 6 4 3 2 2 2 0 1 2 4 6 7 9 10 11 12 13 12 11 11 11 11 11
21 21 21 20 17 15 12 10 7 6 5 4 3 4 3 3 0 2 3 4 6 8 9 10 12 13 14 12 10 11 11 12 12
22 23 22 20 16 13 11 9 7 6 5 5 4 4 4 3 2 3 4 5 7 9 10 11 12 14 14 11 12 12 13 13 13
24 24 21 17 15 12 10 8 7 7 6 6 5 4 5 4 3 4 5 6 8 9 10 12 13 14 13 12 13 13 13 14 14
27 24 21 18 15 13 10 9 8 8 7 6 5 5 5 6 5 5 7 8 9 10 11 11 13 14 14 13 15 15 15 16 14
28 25 22 18 15 12 10 9 8 8 8 7 7 6 6 7 7 7 8 9 11 11 12 13 13 13 14 12 13 14 16 17 17
29 25 21 19 15 12 10 10 9 9 9 9 7 8 8 9 10 10 10 11 12 12 12 13 14 15 16 15 15 15 14 14 15
28 25 22 18 15 13 12 12 11 11 11 10 10 10 10 11 12 13 13 12 13 13 14 15 15 15 15 15 17 17 17 17 18
29 26 22 20 18 16 14 14 13 13 14 13 13 13 12 13 14 14 15 16 15 15 14 14 16 16 16 17 18 18 20 21 22
30 26 23 21 19 17 15 15 14 15 16 16 18 17 16 16 16 17 17 16 15 16 15 14 14 15 16 17 18 17 20 22 23
30 27 25 23 20 18 18 16 18 17 17 19 21 21 19 21 20 18 18 17 17 16 15 14 14 16 16 18 19 21 23 24 25
30 27 25 24 22 21 19 19 20 20 21 24 23 23 23 24 21 20 20 18 17 16 14 14 14 16 17 19 20 22 24 25 26
29 27 25 24 23 23 22 22 21 21 21 26 24 25 26 26 22 21 21 19 18 16 17 16 16 15 18 19 21 22 24 26 27
31 29 26 25 25 25 23 22 23 19 21 24 26 27 29 27 25 21 19 18 18 18 19 19 20 19 20 22 23 25 27 29 30
30 29 29 29 28 24 27 27 25 22 25 33 30 29 28 28 26 26 23 26 22 20 20 21 22 21 22 21 23 25 28 30 30
30 31 30 29 23 27 29 32 31 29 30 25 32 31 32 17 24 26 23 25 33 32 34 30 26 24 25 25 28 29 30 31 31

GFSFLT1_700_spd_111.txt.gz
Wind_Speed
11 11 10 9 9 9 11 11 12 11 9 9 8 7 8 9 8 8 8 7 8 9 9 9 10 10 10 10 10 10 10 10 10
13 12 12 10 11 13 14 13 12 10 10 8 8 7 7 4 6 6 6 6 7 7 8 9 9 10 10 10 10 10 10 10 10
15 15 13 12 12 14 15 13 11 10 9 8 6 6 6 4 4 4 4 4 5 6 7 8 10 10 10 10 10 10 10 11 11
18 16 15 14 15 15 14 13 11 9 8 7 5 4 4 4 3 2 2 3 4 6 7 9 10 11 11 11 10 10 10 11 11
20 18 16 16 16 16 15 13 11 9 7 6 5 4 3 3 2 1 0 2 4 5 7 9 10 11 12 11 9 10 10 10 11
22 20 19 19 18 17 15 12 10 8 7 5 4 4 3 2 3 2 2 2 4 6 7 9 10 11 11 10 10 10 10 11 12
24 22 21 20 19 16 14 11 9 7 6 5 5 4 4 3 4 3 3 3 4 6 8 9 10 11 12 11 11 11 10 10 11
25 24 22 21 18 16 13 11 9 8 7 7 6 6 5 5 5 4 4 5 6 7 9 10 11 13 13 13 11 10 11 11 13
26 24 23 21 19 16 13 11 10 9 9 8 8 7 7 7 6 6 5 6 8 9 9 10 11 14 15 16 15 12 14 15 16
27 26 24 22 19 15 13 11 10 10 10 10 9 9 9 7 6 7 7 7 9 9 10 11 11 13 14 15 16 15 16 16 17
29 29 27 24 19 17 14 12 11 11 11 10 9 9 8 9 8 9 8 9 10 9 11 11 13 13 14 15 16 17 16 15 17
32 30 27 24 21 18 15 14 12 11 10 11 10 10 10 10 11 10 10 9 10 10 12 13 14 15 15 16 16 17 19 18 19
33 31 28 25 21 19 17 14 13 11 11 12 12 12 13 14 13 12 13 13 11 12 12 12 14 14 15 16 16 16 17 18 20
34 32 29 27 24 21 18 16 14 13 12 12 14 15 16 16 15 16 15 15 15 14 14 14 14 15 15 15 14 15 17 19 21
36 34 32 29 25 22 20 18 16 15 15 15 16 17 18 18 19 19 18 17 17 17 15 15 14 15 14 15 15 15 17 18 21
37 35 33 29 26 23 22 20 18 17 17 19 19 22 20 19 22 21 21 21 20 19 17 17 15 15 14 15 15 17 18 18 21
37 35 32 29 27 25 23 21 20 18 21 19 21 23 25 25 25 23 21 22 22 22 21 20 19 18 18 19 18 19 20 22 24
34 33 32 30 29 27 25 22 19 20 24 15 19 23 26 26 25 24 22 22 21 22 23 21 20 19 21 22 23 23 23 25 28
36 35 33 31 30 28 25 21 22 20 20 29 32 27 30 33 28 24 22 28 28 27 25 23 23 22 22 24 25 25 27 29 31
37 35 34 33 31 29 24 22 26 22 25 27 29 37 39 28 26 23 16 22 30 29 27 28 28 28 28 27 28 30 32 32 32

GFSFLT1_700_spd_114.txt.gz
Wind_Speed
11 10 10 9 7 7 9 11 12 11 10 9 10 9 8 7 6 6 6 5 6 7 8 8 9 10 11 10 11 12 11 12 12
13 12 11 10 8 8 10 12 12 10 9 8 9 8 7 6 5 4 4 4 5 6 7 8 9 10 11 11 11 11 10 11 12
15 14 13 11 10 10 11 11 11 10 9 8 7 5 5 4 3 3 2 2 4 5 6 8 9 9 10 10 10 10 11 11 12
16 16 16 14 12 12 13 12 10 10 9 8 7 7 5 5 4 2 1 1 2 3 5 6 7 9 10 10 9 9 9 10 11
19 19 18 15 14 14 14 12 11 10 9 8 7 6 5 5 5 4 3 1 2 3 5 6 8 10 11 11 10 9 9 10 11
21 21 20 17 17 17 15 13 12 10 9 8 7 7 6 6 6 5 4 3 2 3 6 7 8 10 11 11 11 11 10 10 12
23 23 22 19 19 18 17 14 12 10 9 8 7 7 7 7 7 5 5 4 3 4 6 8 8 10 11 11 11 10 10 10 12
26 26 24 21 21 20 18 15 13 12 10 9 8 8 8 7 7 7 5 5 6 6 7 8 9 9 11 11 12 11 11 12 14
30 28 25 22 21 20 18 16 14 12 11 10 9 9 8 8 8 8 6 6 7 7 8 9 10 12 12 13 13 12 13 14 14
29 29 25 24 24 22 19 17 14 13 12 11 10 10 10 9 9 8 8 8 8 8 9 8 10 12 13 13 14 14 15 15 15
29 29 26 26 26 23 20 17 15 15 13 13 11 12 11 9 9 9 9 10 9 9 9 10 10 10 12 13 14 14 14 14 14
32 31 30 30 27 24 21 18 16 15 13 12 13 11 11 11 11 9 11 10 10 10 10 11 12 12 12 13 14 14 15 15 16
34 34 33 31 29 25 22 20 17 16 15 15 14 14 13 13 11 11 10 11 11 12 11 11 12 13 12 13 13 14 14 16 17
34 35 35 34 30 27 25 22 20 18 17 16 16 16 16 15 14 13 13 14 14 15 14 13 13 14 15 14 15 16 16 16 17
37 37 38 36 32 30 27 24 21 19 18 18 17 17 18 17 16 16 16 19 18 19 18 16 16 17 16 16 16 17 17 17 18
39 39 40 37 34 31 28 26 24 21 21 20 19 19 21 21 19 20 21 22 22 22 20 19 19 19 18 16 16 18 18 19 20
39 40 41 39 36 34 31 27 24 24 24 20 20 21 23 25 22 23 23 24 23 23 22 21 21 22 21 20 19 19 20 20 21
40 40 41 40 37 34 31 27 25 26 25 22 20 20 21 21 23 23 28 26 24 23 21 20 19 19 20 22 23 22 21 21 25
41 40 41 39 38 36 33 30 30 29 27 22 18 21 23 29 26 28 35 37 29 25 25 25 26 27 26 26 29 30 29 30 34
40 40 40 40 39 38 35 34 35 34 29 22 17 22 21 23 30 31 36 30 27 28 28 28 20 23 25 25 29 32 33 32 29

GFSFLT1_700_spd_117.txt.gz
Wind_Speed
10 9 8 8 6 6 5 5 7 9 10 9 8 8 7 5 4 2 3 4 4 5 6 7 8 9 10 10 10 11 11 11 12
12 11 9 9 8 7 6 6 8 8 10 10 9 7 7 6 5 3 1 2 3 4 5 6 7 9 10 10 10 10 11 11 12
14 13 11 11 10 9 7 8 9 8 9 9 9 8 7 6 5 3 2 0 1 2 4 6 8 8 10 10 10 10 10 11 12
17 15 14 13 12 10 10 10 9 9 8 7 7 7 6 5 4 3 3 1 2 3 4 5 7 9 10 10 9 9 9 10 11
19 17 17 15 13 12 12 12 11 10 9 9 7 7 7 6 6 5 4 3 3 4 5 6 7 8 10 10 10 10 9 10 11
21 20 18 17 16 15 14 14 13 12 10 10 9 8 8 8 7 7 6 5 4 5 6 6 7 8 9 10 10 10 10 10 11
23 22 20 20 19 18 17 16 15 13 11 11 10 9 9 9 8 7 7 7 6 5 6 7 8 9 10 10 10 9 9 10 12
26 24 24 23 22 20 19 18 16 14 12 11 11 9 9 10 9 9 8 8 7 7 7 8 8 8 9 9 9 9 9 9 11
29 26 26 26 23 22 21 19 18 15 14 13 12 11 10 10 10 10 10 9 9 8 9 8 9 9 9 9 9 9 9 10 11
31 29 29 28 25 24 23 22 19 17 16 14 13 13 11 11 11 11 11 10 9 9 9 10 11 11 11 10 11 11 10 11 12
34 34 33 29 28 26 25 23 20 18 17 16 15 15 13 12 11 11 11 10 11 10 10 10 11 12 13 13 12 12 12 13 13
37 35 36 32 30 30 28 25 23 21 18 16 16 16 15 13 12 11 11 12 12 11 12 12 12 12 14 14 14 14 14 15 15
37 37 34 33 33 33 29 27 24 21 19 18 17 17 17 16 14 13 12 12 12 13 12 13 14 16 16 16 17 17 16 17 16
41 38 36 35 38 37 32 28 25 23 20 19 20 19 19 17 16 15 16 16 15 13 17 16 17 17 18 19 19 18 16 17 16
47 40 41 40 41 38 34 30 27 24 22 23 23 22 22 21 18 18 20 20 21 15 19 20 20 20 20 21 20 18 17 18 17
44 46 43 43 42 38 34 32 29 26 26 26 24 25 25 23 19 19 22 24 23 22 19 21 21 21 20 19 20 20 21 21 20
49 46 37 41 41 40 37 34 31 29 29 27 26 28 27 23 21 22 26 24 23 21 22 24 24 22 21 21 20 20 22 23 21
53 39 39 38 41 41 39 37 34 32 30 29 30 30 29 25 22 21 23 23 23 23 25 29 28 23 21 22 24 24 23 25 28
44 40 34 36 39 42 40 37 36 33 33 32 31 31 30 26 28 26 26 24 27 30 27 29 30 26 30 31 28 28 25 26 29
46 40 33 37 40 42 40 40 39 37 36 33 32 31 30 27 22 21 25 27 28 30 29 32 34 31 25 18 18 22 29 29 29